Wetterdaten: Samstag, 08.06.2013
Datum Zeit Temp. Aussen +5cm Feuchte Auss Luftdruck Regen Sonnenschein Regendauer UV Solar Windben
08.06.2013 00:00 18,8 C 16,8 C 68 % 1018,8 hPa 0,0 l/m 0 min 0 min 0,0 UV-I 0 W/m 2,6 km/h (1 Bft)
08.06.2013 00:02 18,8 C 16,8 C 68 % 1018,8 hPa 0,0 l/m 0 min 0 min 0,0 UV-I 0 W/m 2,6 km/h (1 Bft)
08.06.2013 00:06 18,7 C 16,8 C 68 % 1018,8 hPa 0,0 l/m 0 min 0 min 0,0 UV-I 0 W/m 7,7 km/h (2 Bft)
08.06.2013 00:08 18,7 C 16,8 C 68 % 1018,8 hPa 0,0 l/m 0 min 0 min 0,0 UV-I 0 W/m 7,7 km/h (2 Bft)
08.06.2013 00:10 18,7 C 16,8 C 68 % 1018,8 hPa 0,0 l/m 0 min 0 min 0,0 UV-I 0 W/m 7,7 km/h (2 Bft)
08.06.2013 00:12 18,6 C 16,8 C 69 % 1018,8 hPa 0,0 l/m 0 min 0 min 0,0 UV-I 0 W/m 2,6 km/h (1 Bft)
08.06.2013 00:14 18,6 C 16,8 C 69 % 1018,8 hPa 0,0 l/m 0 min 0 min 0,0 UV-I 0 W/m 2,6 km/h (1 Bft)
08.06.2013 00:16 18,6 C 16,8 C 69 % 1018,8 hPa 0,0 l/m 0 min 0 min 0,0 UV-I 0 W/m 0,0 km/h (0 Bft)
08.06.2013 00:18 18,5 C 16,2 C 69 % 1018,8 hPa 0,0 l/m 0 min 0 min 0,0 UV-I 0 W/m 2,6 km/h (1 Bft)
08.06.2013 00:20 18,5 C 16,2 C 69 % 1018,8 hPa 0,0 l/m 0 min 0 min 0,0 UV-I 0 W/m 0,0 km/h (0 Bft)
08.06.2013 00:22 18,4 C 16,2 C 70 % 1018,7 hPa 0,0 l/m 0 min 0 min 0,0 UV-I 0 W/m 2,6 km/h (1 Bft)
08.06.2013 00:24 18,4 C 16,2 C 70 % 1018,8 hPa 0,0 l/m 0 min 0 min 0,0 UV-I 0 W/m 0,0 km/h (0 Bft)
08.06.2013 00:26 18,4 C 16,2 C 70 % 1018,7 hPa 0,0 l/m 0 min 0 min 0,0 UV-I 0 W/m 0,0 km/h (0 Bft)
08.06.2013 00:28 18,3 C 16,2 C 70 % 1018,8 hPa 0,0 l/m 0 min 0 min 0,0 UV-I 0 W/m 0,0 km/h (0 Bft)
08.06.2013 00:30 18,3 C 16,2 C 70 % 1018,8 hPa 0,0 l/m 0 min 0 min 0,0 UV-I 0 W/m 0,0 km/h (0 Bft)
08.06.2013 00:32 18,3 C 16,2 C 70 % 1018,8 hPa 0,0 l/m 0 min 0 min 0,0 UV-I 0 W/m 0,0 km/h (0 Bft)
08.06.2013 00:34 18,3 C 15,7 C 71 % 1018,8 hPa 0,0 l/m 0 min 0 min 0,0 UV-I 0 W/m 0,0 km/h (0 Bft)
08.06.2013 00:36 18,2 C 15,7 C 71 % 1018,9 hPa 0,0 l/m 0 min 0 min 0,0 UV-I 0 W/m 0,0 km/h (0 Bft)
08.06.2013 00:38 18,2 C 16,2 C 71 % 1018,8 hPa 0,0 l/m 0 min 0 min 0,0 UV-I 0 W/m 2,6 km/h (1 Bft)
08.06.2013 00:40 18,2 C 16,2 C 71 % 1018,8 hPa 0,0 l/m 0 min 0 min 0,0 UV-I 0 W/m 0,0 km/h (0 Bft)
08.06.2013 00:42 18,1 C 16,2 C 71 % 1018,8 hPa 0,0 l/m 0 min 0 min 0,0 UV-I 0 W/m 5,1 km/h (1 Bft)
08.06.2013 00:44 18,1 C 16,2 C 72 % 1018,8 hPa 0,0 l/m 0 min 0 min 0,0 UV-I 0 W/m 7,7 km/h (2 Bft)
08.06.2013 00:46 18,1 C 16,2 C 72 % 1018,8 hPa 0,0 l/m 0 min 0 min 0,0 UV-I 0 W/m 7,7 km/h (2 Bft)
08.06.2013 00:48 18,1 C 15,7 C 72 % 1018,7 hPa 0,0 l/m 0 min 0 min 0,0 UV-I 0 W/m 2,6 km/h (1 Bft)
08.06.2013 00:50 18,0 C 15,7 C 72 % 1018,8 hPa 0,0 l/m 0 min 0 min 0,0 UV-I 0 W/m 2,6 km/h (1 Bft)
08.06.2013 00:52 18,0 C 15,7 C 72 % 1018,9 hPa 0,0 l/m 0 min 0 min 0,0 UV-I 0 W/m 0,0 km/h (0 Bft)
08.06.2013 00:54 17,9 C 15,7 C 72 % 1018,8 hPa 0,0 l/m 0 min 0 min 0,0 UV-I 0 W/m 0,0 km/h (0 Bft)
08.06.2013 00:56 17,9 C 15,7 C 73 % 1018,8 hPa 0,0 l/m 0 min 0 min 0,0 UV-I 0 W/m 7,7 km/h (2 Bft)
08.06.2013 00:58 17,9 C 15,7 C 73 % 1018,8 hPa 0,0 l/m 0 min 0 min 0,0 UV-I 0 W/m 2,6 km/h (1 Bft)
08.06.2013 01:00 17,9 C 15,7 C 73 % 1018,8 hPa 0,0 l/m 0 min 0 min 0,0 UV-I 0 W/m 0,0 km/h (0 Bft)
08.06.2013 01:02 17,8 C 15,7 C 73 % 1018,8 hPa 0,0 l/m 0 min 0 min 0,0 UV-I 0 W/m 0,0 km/h (0 Bft)
08.06.2013 01:04 17,8 C 15,7 C 73 % 1018,8 hPa 0,0 l/m 0 min 0 min 0,0 UV-I 0 W/m 0,0 km/h (0 Bft)
08.06.2013 01:06 17,8 C 15,7 C 73 % 1018,8 hPa 0,0 l/m 0 min 0 min 0,0 UV-I 0 W/m 2,6 km/h (1 Bft)
08.06.2013 01:08 17,7 C 15,7 C 73 % 1018,8 hPa 0,0 l/m 0 min 0 min 0,0 UV-I 0 W/m 0,0 km/h (0 Bft)
08.06.2013 01:10 17,7 C 15,7 C 74 % 1018,8 hPa 0,0 l/m 0 min 0 min 0,0 UV-I 0 W/m 0,0 km/h (0 Bft)
08.06.2013 01:12 17,7 C 15,7 C 74 % 1018,8 hPa 0,0 l/m 0 min 0 min 0,0 UV-I 0 W/m 2,6 km/h (1 Bft)
08.06.2013 01:14 17,6 C 15,7 C 74 % 1018,7 hPa 0,0 l/m 0 min 0 min 0,0 UV-I 0 W/m 0,0 km/h (0 Bft)
08.06.2013 01:16 17,6 C 15,7 C 74 % 1018,7 hPa 0,0 l/m 0 min 0 min 0,0 UV-I 0 W/m 2,6 km/h (1 Bft)
08.06.2013 01:18 17,5 C 15,7 C 74 % 1018,8 hPa 0,0 l/m 0 min 0 min 0,0 UV-I 0 W/m 0,0 km/h (0 Bft)
08.06.2013 01:20 17,4 C 15,7 C 74 % 1018,8 hPa 0,0 l/m 0 min 0 min 0,0 UV-I 0 W/m 0,0 km/h (0 Bft)
08.06.2013 01:22 17,4 C 15,7 C 74 % 1018,8 hPa 0,0 l/m 0 min 0 min 0,0 UV-I 0 W/m 0,0 km/h (0 Bft)
08.06.2013 01:24 17,4 C 15,7 C 74 % 1018,7 hPa 0,0 l/m 0 min 0 min 0,0 UV-I 0 W/m 7,7 km/h (2 Bft)
08.06.2013 01:26 17,3 C 15,7 C 74 % 1018,8 hPa 0,0 l/m 0 min 0 min 0,0 UV-I 0 W/m 2,6 km/h (1 Bft)
08.06.2013 01:28 17,3 C 15,7 C 75 % 1018,7 hPa 0,0 l/m 0 min 0 min 0,0 UV-I 0 W/m 2,6 km/h (1 Bft)
08.06.2013 01:30 17,3 C 15,7 C 75 % 1018,7 hPa 0,0 l/m 0 min 0 min 0,0 UV-I 0 W/m 7,7 km/h (2 Bft)
08.06.2013 01:32 17,2 C 15,7 C 75 % 1018,7 hPa 0,0 l/m 0 min 0 min 0,0 UV-I 0 W/m 7,7 km/h (2 Bft)
08.06.2013 01:34 17,2 C 15,7 C 75 % 1018,7 hPa 0,0 l/m 0 min 0 min 0,0 UV-I 0 W/m 10,3 km/h (2 Bft)
08.06.2013 01:36 17,2 C 15,7 C 75 % 1018,7 hPa 0,0 l/m 0 min 0 min 0,0 UV-I 0 W/m 7,7 km/h (2 Bft)
08.06.2013 01:38 17,1 C 15,7 C 75 % 1018,7 hPa 0,0 l/m 0 min 0 min 0,0 UV-I 0 W/m 12,9 km/h (3 Bft)
08.06.2013 01:40 17,1 C 15,7 C 75 % 1018,7 hPa 0,0 l/m 0 min 0 min 0,0 UV-I 0 W/m 2,6 km/h (1 Bft)
08.06.2013 01:42 17,1 C 15,7 C 75 % 1018,7 hPa 0,0 l/m 0 min 0 min 0,0 UV-I 0 W/m 10,3 km/h (2 Bft)
08.06.2013 01:44 17,1 C 15,7 C 75 % 1018,8 hPa 0,0 l/m 0 min 0 min 0,0 UV-I 0 W/m 10,3 km/h (2 Bft)
08.06.2013 01:46 17,0 C 15,7 C 75 % 1018,7 hPa 0,0 l/m 0 min 0 min 0,0 UV-I 0 W/m 10,3 km/h (2 Bft)
08.06.2013 01:48 16,9 C 15,7 C 75 % 1018,7 hPa 0,0 l/m 0 min 0 min 0,0 UV-I 0 W/m 7,7 km/h (2 Bft)
08.06.2013 01:50 16,9 C 15,1 C 75 % 1018,7 hPa 0,0 l/m 0 min 0 min 0,0 UV-I 0 W/m 5,1 km/h (1 Bft)
08.06.2013 01:52 16,9 C 15,1 C 76 % 1018,6 hPa 0,0 l/m 0 min 0 min 0,0 UV-I 0 W/m 5,1 km/h (1 Bft)
08.06.2013 01:54 16,9 C 15,1 C 76 % 1018,7 hPa 0,0 l/m 0 min 0 min 0,0 UV-I 0 W/m 2,6 km/h (1 Bft)
08.06.2013 01:56 16,9 C 15,1 C 76 % 1018,6 hPa 0,0 l/m 0 min 0 min 0,0 UV-I 0 W/m 2,6 km/h (1 Bft)
08.06.2013 01:58 16,8 C 15,1 C 76 % 1018,6 hPa 0,0 l/m 0 min 0 min 0,0 UV-I 0 W/m 2,6 km/h (1 Bft)
08.06.2013 02:00 16,8 C 15,1 C 76 % 1018,7 hPa 0,0 l/m 0 min 0 min 0,0 UV-I 0 W/m 5,1 km/h (1 Bft)
08.06.2013 02:02 16,8 C 15,1 C 76 % 1018,7 hPa 0,0 l/m 0 min 0 min 0,0 UV-I 0 W/m 7,7 km/h (2 Bft)
08.06.2013 02:04 16,7 C 15,1 C 76 % 1018,6 hPa 0,0 l/m 0 min 0 min 0,0 UV-I 0 W/m 5,1 km/h (1 Bft)
08.06.2013 02:06 16,7 C 15,1 C 76 % 1018,7 hPa 0,0 l/m 0 min 0 min 0,0 UV-I 0 W/m 7,7 km/h (2 Bft)
08.06.2013 02:08 16,7 C 15,1 C 76 % 1018,6 hPa 0,0 l/m 0 min 0 min 0,0 UV-I 0 W/m 7,7 km/h (2 Bft)
08.06.2013 02:10 16,7 C 15,1 C 76 % 1018,6 hPa 0,0 l/m 0 min 0 min 0,0 UV-I 0 W/m 7,7 km/h (2 Bft)
08.06.2013 02:12 16,6 C 15,1 C 76 % 1018,7 hPa 0,0 l/m 0 min 0 min 0,0 UV-I 0 W/m 10,3 km/h (2 Bft)
08.06.2013 02:14 16,6 C 15,1 C 76 % 1018,7 hPa 0,0 l/m 0 min 0 min 0,0 UV-I 0 W/m 7,7 km/h (2 Bft)
08.06.2013 02:16 16,6 C 15,1 C 76 % 1018,7 hPa 0,0 l/m 0 min 0 min 0,0 UV-I 0 W/m 5,1 km/h (1 Bft)
08.06.2013 02:18 16,6 C 15,1 C 76 % 1018,7 hPa 0,0 l/m 0 min 0 min 0,0 UV-I 0 W/m 0,0 km/h (0 Bft)
08.06.2013 02:20 16,6 C 15,1 C 76 % 1018,7 hPa 0,0 l/m 0 min 0 min 0,0 UV-I 0 W/m 5,1 km/h (1 Bft)
08.06.2013 02:22 16,5 C 15,1 C 76 % 1018,6 hPa 0,0 l/m 0 min 0 min 0,0 UV-I 0 W/m 7,7 km/h (2 Bft)
08.06.2013 02:24 16,5 C 15,1 C 76 % 1018,6 hPa 0,0 l/m 0 min 0 min 0,0 UV-I 0 W/m 10,3 km/h (2 Bft)
08.06.2013 02:26 16,5 C 15,1 C 76 % 1018,5 hPa 0,0 l/m 0 min 0 min 0,0 UV-I 0 W/m 7,7 km/h (2 Bft)
08.06.2013 02:28 16,4 C 14,6 C 76 % 1018,6 hPa 0,0 l/m 0 min 0 min 0,0 UV-I 0 W/m 2,6 km/h (1 Bft)
08.06.2013 02:30 16,4 C 14,6 C 76 % 1018,6 hPa 0,0 l/m 0 min 0 min 0,0 UV-I 0 W/m 2,6 km/h (1 Bft)
08.06.2013 02:32 16,4 C 14,6 C 76 % 1018,6 hPa 0,0 l/m 0 min 0 min 0,0 UV-I 0 W/m 2,6 km/h (1 Bft)
08.06.2013 02:34 16,4 C 14,6 C 76 % 1018,7 hPa 0,0 l/m 0 min 0 min 0,0 UV-I 0 W/m 2,6 km/h (1 Bft)
08.06.2013 02:36 16,4 C 14,6 C 76 % 1018,6 hPa 0,0 l/m 0 min 0 min 0,0 UV-I 0 W/m 2,6 km/h (1 Bft)
08.06.2013 02:38 16,3 C 14,6 C 76 % 1018,6 hPa 0,0 l/m 0 min 0 min 0,0 UV-I 0 W/m 2,6 km/h (1 Bft)
08.06.2013 02:40 16,3 C 14,6 C 76 % 1018,6 hPa 0,0 l/m 0 min 0 min 0,0 UV-I 0 W/m 0,0 km/h (0 Bft)
08.06.2013 02:42 16,3 C 14,6 C 76 % 1018,5 hPa 0,0 l/m 0 min 0 min 0,0 UV-I 0 W/m 2,6 km/h (1 Bft)
08.06.2013 02:44 16,3 C 14,6 C 76 % 1018,5 hPa 0,0 l/m 0 min 0 min 0,0 UV-I 0 W/m 0,0 km/h (0 Bft)
08.06.2013 02:46 16,2 C 14,6 C 76 % 1018,5 hPa 0,0 l/m 0 min 0 min 0,0 UV-I 0 W/m 0,0 km/h (0 Bft)
08.06.2013 02:48 16,2 C 14,6 C 76 % 1018,5 hPa 0,0 l/m 0 min 0 min 0,0 UV-I 0 W/m 10,3 km/h (2 Bft)
08.06.2013 02:50 16,2 C 14,6 C 76 % 1018,6 hPa 0,0 l/m 0 min 0 min 0,0 UV-I 0 W/m 7,7 km/h (2 Bft)
08.06.2013 02:52 16,2 C 14,6 C 76 % 1018,6 hPa 0,0 l/m 0 min 0 min 0,0 UV-I 0 W/m 2,6 km/h (1 Bft)
08.06.2013 02:54 16,1 C 14,6 C 76 % 1018,6 hPa 0,0 l/m 0 min 0 min 0,0 UV-I 0 W/m 2,6 km/h (1 Bft)
08.06.2013 02:56 16,1 C 14,6 C 76 % 1018,5 hPa 0,0 l/m 0 min 0 min 0,0 UV-I 0 W/m 2,6 km/h (1 Bft)
08.06.2013 02:58 16,1 C 14,6 C 77 % 1018,5 hPa 0,0 l/m 0 min 0 min 0,0 UV-I 0 W/m 10,3 km/h (2 Bft)
08.06.2013 03:00 16,1 C 14,6 C 77 % 1018,5 hPa 0,0 l/m 0 min 0 min 0,0 UV-I 0 W/m 10,3 km/h (2 Bft)
08.06.2013 03:02 16,0 C 14,6 C 77 % 1018,5 hPa 0,0 l/m 0 min 0 min 0,0 UV-I 0 W/m 2,6 km/h (1 Bft)
08.06.2013 03:04 16,0 C 14,6 C 77 % 1018,5 hPa 0,0 l/m 0 min 0 min 0,0 UV-I 0 W/m 0,0 km/h (0 Bft)
08.06.2013 03:06 15,9 C 14,6 C 77 % 1018,5 hPa 0,0 l/m 0 min 0 min 0,0 UV-I 0 W/m 0,0 km/h (0 Bft)
08.06.2013 03:08 15,9 C 14,0 C 77 % 1018,5 hPa 0,0 l/m 0 min 0 min 0,0 UV-I 0 W/m 7,7 km/h (2 Bft)
08.06.2013 03:10 15,9 C 14,6 C 77 % 1018,5 hPa 0,0 l/m 0 min 0 min 0,0 UV-I 0 W/m 5,1 km/h (1 Bft)
08.06.2013 03:12 15,9 C 14,6 C 77 % 1018,5 hPa 0,0 l/m 0 min 0 min 0,0 UV-I 0 W/m 2,6 km/h (1 Bft)
08.06.2013 03:14 15,8 C 14,6 C 76 % 1018,4 hPa 0,0 l/m 0 min 0 min 0,0 UV-I 0 W/m 7,7 km/h (2 Bft)
08.06.2013 03:16 15,8 C 14,6 C 76 % 1018,4 hPa 0,0 l/m 0 min 0 min 0,0 UV-I 0 W/m 7,7 km/h (2 Bft)
08.06.2013 03:18 15,8 C 14,6 C 76 % 1018,4 hPa 0,0 l/m 0 min 0 min 0,0 UV-I 0 W/m 10,3 km/h (2 Bft)
08.06.2013 03:20 15,8 C 14,6 C 76 % 1018,4 hPa 0,0 l/m 0 min 0 min 0,0 UV-I 0 W/m 10,3 km/h (2 Bft)
08.06.2013 03:22 15,7 C 14,6 C 76 % 1018,4 hPa 0,0 l/m 0 min 0 min 0,0 UV-I 0 W/m 10,3 km/h (2 Bft)
08.06.2013 03:24 15,7 C 14,6 C 76 % 1018,3 hPa 0,0 l/m 0 min 0 min 0,0 UV-I 0 W/m 10,3 km/h (2 Bft)
08.06.2013 03:26 15,7 C 14,6 C 76 % 1018,3 hPa 0,0 l/m 0 min 0 min 0,0 UV-I 0 W/m 10,3 km/h (2 Bft)
08.06.2013 03:28 15,7 C 14,6 C 76 % 1018,3 hPa 0,0 l/m 0 min 0 min 0,0 UV-I 0 W/m 10,3 km/h (2 Bft)
08.06.2013 03:30 15,7 C 14,0 C 77 % 1018,3 hPa 0,0 l/m 0 min 0 min 0,0 UV-I 0 W/m 7,7 km/h (2 Bft)
08.06.2013 03:32 15,6 C 14,0 C 77 % 1018,2 hPa 0,0 l/m 0 min 0 min 0,0 UV-I 0 W/m 10,3 km/h (2 Bft)
08.06.2013 03:34 15,6 C 14,0 C 77 % 1018,3 hPa 0,0 l/m 0 min 0 min 0,0 UV-I 0 W/m 2,6 km/h (1 Bft)
08.06.2013 03:36 15,6 C 14,0 C 77 % 1018,3 hPa 0,0 l/m 0 min 0 min 0,0 UV-I 0 W/m 10,3 km/h (2 Bft)
08.06.2013 03:38 15,6 C 14,0 C 77 % 1018,3 hPa 0,0 l/m 0 min 0 min 0,0 UV-I 0 W/m 10,3 km/h (2 Bft)
08.06.2013 03:40 15,5 C 14,0 C 77 % 1018,3 hPa 0,0 l/m 0 min 0 min 0,0 UV-I 0 W/m 10,3 km/h (2 Bft)
08.06.2013 03:42 15,5 C 14,0 C 78 % 1018,2 hPa 0,0 l/m 0 min 0 min 0,0 UV-I 0 W/m 7,7 km/h (2 Bft)
08.06.2013 03:44 15,4 C 14,0 C 78 % 1018,2 hPa 0,0 l/m 0 min 0 min 0,0 UV-I 0 W/m 2,6 km/h (1 Bft)
08.06.2013 03:46 15,4 C 14,0 C 78 % 1018,2 hPa 0,0 l/m 0 min 0 min 0,0 UV-I 0 W/m 7,7 km/h (2 Bft)
08.06.2013 03:48 15,4 C 14,0 C 78 % 1018,2 hPa 0,0 l/m 0 min 0 min 0,0 UV-I 0 W/m 5,1 km/h (1 Bft)
08.06.2013 03:50 15,4 C 13,4 C 78 % 1018,3 hPa 0,0 l/m 0 min 0 min 0,0 UV-I 0 W/m 0,0 km/h (0 Bft)
08.06.2013 03:52 15,3 C 13,4 C 78 % 1018,3 hPa 0,0 l/m 0 min 0 min 0,0 UV-I 0 W/m 0,0 km/h (0 Bft)
08.06.2013 03:54 15,3 C 13,4 C 78 % 1018,4 hPa 0,0 l/m 0 min 0 min 0,0 UV-I 0 W/m 2,6 km/h (1 Bft)
08.06.2013 03:56 15,3 C 13,4 C 79 % 1018,3 hPa 0,0 l/m 0 min 0 min 0,0 UV-I 0 W/m 0,0 km/h (0 Bft)
08.06.2013 03:58 15,3 C 13,4 C 79 % 1018,3 hPa 0,0 l/m 0 min 0 min 0,0 UV-I 0 W/m 0,0 km/h (0 Bft)
08.06.2013 04:00 15,3 C 13,4 C 79 % 1018,3 hPa 0,0 l/m 0 min 0 min 0,0 UV-I 0 W/m 2,6 km/h (1 Bft)
08.06.2013 04:02 15,3 C 13,4 C 80 % 1018,3 hPa 0,0 l/m 0 min 0 min 0,0 UV-I 0 W/m 2,6 km/h (1 Bft)
08.06.2013 04:04 15,2 C 13,4 C 80 % 1018,3 hPa 0,0 l/m 0 min 0 min 0,0 UV-I 0 W/m 0,0 km/h (0 Bft)
08.06.2013 04:06 15,2 C 13,4 C 80 % 1018,2 hPa 0,0 l/m 0 min 0 min 0,0 UV-I 0 W/m 5,1 km/h (1 Bft)
08.06.2013 04:08 15,2 C 13,4 C 81 % 1018,2 hPa 0,0 l/m 0 min 0 min 0,0 UV-I 0 W/m 5,1 km/h (1 Bft)
08.06.2013 04:10 15,1 C 13,4 C 81 % 1018,2 hPa 0,0 l/m 0 min 0 min 0,0 UV-I 0 W/m 0,0 km/h (0 Bft)
08.06.2013 04:12 15,1 C 13,4 C 81 % 1018,2 hPa 0,0 l/m 0 min 0 min 0,0 UV-I 0 W/m 10,3 km/h (2 Bft)
08.06.2013 04:14 15,0 C 13,4 C 82 % 1018,2 hPa 0,0 l/m 0 min 0 min 0,0 UV-I 0 W/m 2,6 km/h (1 Bft)
08.06.2013 04:16 15,0 C 13,4 C 82 % 1018,2 hPa 0,0 l/m 0 min 0 min 0,0 UV-I 0 W/m 0,0 km/h (0 Bft)
08.06.2013 04:18 14,9 C 13,4 C 82 % 1018,2 hPa 0,0 l/m 0 min 0 min 0,0 UV-I 0 W/m 7,7 km/h (2 Bft)
08.06.2013 04:20 14,9 C 13,4 C 82 % 1018,1 hPa 0,0 l/m 0 min 0 min 0,0 UV-I 0 W/m 2,6 km/h (1 Bft)
08.06.2013 04:22 14,9 C 13,4 C 83 % 1018,1 hPa 0,0 l/m 0 min 0 min 0,0 UV-I 0 W/m 2,6 km/h (1 Bft)
08.06.2013 04:24 14,8 C 13,4 C 83 % 1018,0 hPa 0,0 l/m 0 min 0 min 0,0 UV-I 0 W/m 0,0 km/h (0 Bft)
08.06.2013 04:26 14,8 C 13,4 C 83 % 1018,1 hPa 0,0 l/m 0 min 0 min 0,0 UV-I 0 W/m 10,3 km/h (2 Bft)
08.06.2013 04:28 14,8 C 12,9 C 84 % 1018,0 hPa 0,0 l/m 0 min 0 min 0,0 UV-I 0 W/m 2,6 km/h (1 Bft)
08.06.2013 04:30 14,7 C 12,9 C 84 % 1018,0 hPa 0,0 l/m 0 min 0 min 0,0 UV-I 0 W/m 0,0 km/h (0 Bft)
08.06.2013 04:32 14,7 C 12,9 C 84 % 1017,9 hPa 0,0 l/m 0 min 0 min 0,0 UV-I 0 W/m 0,0 km/h (0 Bft)
08.06.2013 04:34 14,7 C 12,9 C 84 % 1018,1 hPa 0,0 l/m 0 min 0 min 0,0 UV-I 0 W/m 5,1 km/h (1 Bft)
08.06.2013 04:36 14,6 C 12,9 C 84 % 1018,0 hPa 0,0 l/m 0 min 0 min 0,0 UV-I 0 W/m 12,9 km/h (3 Bft)
08.06.2013 04:38 14,6 C 12,9 C 85 % 1018,0 hPa 0,0 l/m 0 min 0 min 0,0 UV-I 0 W/m 10,3 km/h (2 Bft)
08.06.2013 04:40 14,5 C 12,9 C 85 % 1018,0 hPa 0,0 l/m 0 min 0 min 0,0 UV-I 0 W/m 7,7 km/h (2 Bft)
08.06.2013 04:42 14,5 C 12,9 C 85 % 1018,0 hPa 0,0 l/m 0 min 0 min 0,0 UV-I 0 W/m 5,1 km/h (1 Bft)
08.06.2013 04:44 14,4 C 12,9 C 85 % 1018,1 hPa 0,0 l/m 0 min 0 min 0,0 UV-I 0 W/m 7,7 km/h (2 Bft)
08.06.2013 04:46 14,4 C 12,9 C 85 % 1018,0 hPa 0,0 l/m 0 min 0 min 0,0 UV-I 0 W/m 7,7 km/h (2 Bft)
08.06.2013 04:48 14,3 C 12,9 C 85 % 1018,0 hPa 0,0 l/m 0 min 0 min 0,0 UV-I 0 W/m 2,6 km/h (1 Bft)
08.06.2013 04:50 14,3 C 12,9 C 85 % 1018,0 hPa 0,0 l/m 0 min 0 min 0,0 UV-I 0 W/m 2,6 km/h (1 Bft)
08.06.2013 04:52 14,3 C 12,9 C 86 % 1018,0 hPa 0,0 l/m 0 min 0 min 0,0 UV-I 0 W/m 2,6 km/h (1 Bft)
08.06.2013 04:54 14,3 C 12,9 C 86 % 1018,0 hPa 0,0 l/m 0 min 0 min 0,0 UV-I 0 W/m 5,1 km/h (1 Bft)
08.06.2013 04:56 14,2 C 12,9 C 86 % 1018,0 hPa 0,0 l/m 0 min 0 min 0,0 UV-I 0 W/m 2,6 km/h (1 Bft)
08.06.2013 04:58 14,2 C 12,9 C 86 % 1018,1 hPa 0,0 l/m 0 min 0 min 0,0 UV-I 0 W/m 7,7 km/h (2 Bft)
08.06.2013 05:00 14,1 C 12,9 C 86 % 1017,9 hPa 0,0 l/m 0 min 0 min 0,0 UV-I 0 W/m 12,9 km/h (3 Bft)
08.06.2013 05:02 14,1 C 12,9 C 86 % 1018,0 hPa 0,0 l/m 0 min 0 min 0,0 UV-I 0 W/m 2,6 km/h (1 Bft)
08.06.2013 05:04 14,0 C 12,9 C 86 % 1018,0 hPa 0,0 l/m 0 min 0 min 0,0 UV-I 0 W/m 12,9 km/h (3 Bft)
08.06.2013 05:06 14,0 C 12,9 C 86 % 1017,9 hPa 0,0 l/m 0 min 0 min 0,0 UV-I 0 W/m 0,0 km/h (0 Bft)
08.06.2013 05:08 14,0 C 12,3 C 87 % 1018,0 hPa 0,0 l/m 0 min 0 min 0,0 UV-I 0 W/m 7,7 km/h (2 Bft)
08.06.2013 05:10 14,0 C 12,3 C 87 % 1018,0 hPa 0,0 l/m 0 min 0 min 0,0 UV-I 0 W/m 7,7 km/h (2 Bft)
08.06.2013 05:12 14,0 C 12,3 C 87 % 1017,9 hPa 0,0 l/m 0 min 0 min 0,0 UV-I 0 W/m 5,1 km/h (1 Bft)
08.06.2013 05:14 14,0 C 12,3 C 87 % 1018,0 hPa 0,0 l/m 0 min 0 min 0,0 UV-I 0 W/m 0,0 km/h (0 Bft)
08.06.2013 05:16 14,0 C 12,3 C 87 % 1017,9 hPa 0,0 l/m 0 min 0 min 0,0 UV-I 0 W/m 0,0 km/h (0 Bft)
08.06.2013 05:18 14,0 C 12,3 C 87 % 1017,9 hPa 0,0 l/m 0 min 0 min 0,0 UV-I 5 W/m 2,6 km/h (1 Bft)
08.06.2013 05:20 13,9 C 12,3 C 87 % 1017,9 hPa 0,0 l/m 0 min 0 min 0,0 UV-I 5 W/m 2,6 km/h (1 Bft)
08.06.2013 05:22 13,9 C 12,3 C 87 % 1017,9 hPa 0,0 l/m 0 min 0 min 0,0 UV-I 5 W/m 10,3 km/h (2 Bft)
08.06.2013 05:24 13,8 C 12,3 C 87 % 1017,9 hPa 0,0 l/m 0 min 0 min 0,0 UV-I 5 W/m 7,7 km/h (2 Bft)
08.06.2013 05:26 13,8 C 12,3 C 88 % 1017,9 hPa 0,0 l/m 0 min 0 min 0,0 UV-I 5 W/m 7,7 km/h (2 Bft)
08.06.2013 05:28 13,8 C 12,3 C 88 % 1017,9 hPa 0,0 l/m 0 min 0 min 0,0 UV-I 7 W/m 7,7 km/h (2 Bft)
08.06.2013 05:30 13,8 C 12,3 C 88 % 1017,9 hPa 0,0 l/m 0 min 0 min 0,0 UV-I 7 W/m 0,0 km/h (0 Bft)
08.06.2013 05:32 13,7 C 12,3 C 88 % 1017,9 hPa 0,0 l/m 0 min 0 min 0,0 UV-I 7 W/m 7,7 km/h (2 Bft)
08.06.2013 05:34 13,7 C 12,3 C 88 % 1017,9 hPa 0,0 l/m 0 min 0 min 0,0 UV-I 9 W/m 10,3 km/h (2 Bft)
08.06.2013 05:36 13,7 C 12,3 C 88 % 1017,8 hPa 0,0 l/m 0 min 0 min 0,0 UV-I 9 W/m 7,7 km/h (2 Bft)
08.06.2013 05:38 13,6 C 12,3 C 88 % 1017,8 hPa 0,0 l/m 0 min 0 min 0,0 UV-I 9 W/m 7,7 km/h (2 Bft)
08.06.2013 05:40 13,6 C 12,3 C 88 % 1017,9 hPa 0,0 l/m 0 min 0 min 0,0 UV-I 11 W/m 7,7 km/h (2 Bft)
08.06.2013 05:42 13,6 C 12,3 C 89 % 1017,9 hPa 0,0 l/m 0 min 0 min 0,0 UV-I 11 W/m 0,0 km/h (0 Bft)
08.06.2013 05:44 13,6 C 12,3 C 89 % 1017,8 hPa 0,0 l/m 0 min 0 min 0,0 UV-I 12 W/m 7,7 km/h (2 Bft)
08.06.2013 05:46 13,5 C 12,3 C 89 % 1017,9 hPa 0,0 l/m 0 min 0 min 0,0 UV-I 12 W/m 10,3 km/h (2 Bft)
08.06.2013 05:48 13,5 C 12,3 C 89 % 1018,0 hPa 0,0 l/m 0 min 0 min 0,0 UV-I 14 W/m 10,3 km/h (2 Bft)
08.06.2013 05:50 13,4 C 12,3 C 89 % 1017,9 hPa 0,0 l/m 0 min 0 min 0,0 UV-I 14 W/m 5,1 km/h (1 Bft)
08.06.2013 05:52 13,4 C 12,3 C 89 % 1017,9 hPa 0,0 l/m 0 min 0 min 0,0 UV-I 16 W/m 2,6 km/h (1 Bft)
08.06.2013 05:54 13,4 C 12,3 C 89 % 1018,0 hPa 0,0 l/m 0 min 0 min 0,0 UV-I 18 W/m 10,3 km/h (2 Bft)
08.06.2013 05:56 13,4 C 12,3 C 89 % 1018,0 hPa 0,0 l/m 0 min 0 min 0,0 UV-I 19 W/m 12,9 km/h (3 Bft)
08.06.2013 05:58 13,3 C 12,3 C 89 % 1017,9 hPa 0,0 l/m 0 min 0 min 0,0 UV-I 21 W/m 7,7 km/h (2 Bft)
08.06.2013 06:00 13,3 C 12,3 C 90 % 1018,0 hPa 0,0 l/m 0 min 0 min 0,0 UV-I 23 W/m 10,3 km/h (2 Bft)
08.06.2013 06:02 13,3 C 12,3 C 90 % 1018,0 hPa 0,0 l/m 0 min 0 min 0,0 UV-I 25 W/m 10,3 km/h (2 Bft)
08.06.2013 06:04 13,3 C 12,3 C 90 % 1018,0 hPa 0,0 l/m 0 min 0 min 0,0 UV-I 26 W/m 2,6 km/h (1 Bft)
08.06.2013 06:06 13,3 C 12,3 C 90 % 1018,0 hPa 0,0 l/m 0 min 0 min 0,0 UV-I 28 W/m 2,6 km/h (1 Bft)
08.06.2013 06:08 13,2 C 12,3 C 90 % 1018,0 hPa 0,0 l/m 0 min 0 min 0,0 UV-I 30 W/m 15,4 km/h (3 Bft)
08.06.2013 06:10 13,2 C 12,3 C 90 % 1018,0 hPa 0,0 l/m 0 min 0 min 0,0 UV-I 30 W/m 7,7 km/h (2 Bft)
08.06.2013 06:12 13,2 C 12,3 C 90 % 1018,0 hPa 0,0 l/m 0 min 0 min 0,0 UV-I 33 W/m 10,3 km/h (2 Bft)
08.06.2013 06:14 13,2 C 12,3 C 90 % 1018,0 hPa 0,0 l/m 0 min 0 min 0,0 UV-I 33 W/m 15,4 km/h (3 Bft)
08.06.2013 06:16 13,2 C 12,3 C 90 % 1018,0 hPa 0,0 l/m 0 min 0 min 0,0 UV-I 33 W/m 12,9 km/h (3 Bft)
08.06.2013 06:18 13,1 C 12,3 C 90 % 1018,0 hPa 0,0 l/m 0 min 0 min 0,0 UV-I 35 W/m 7,7 km/h (2 Bft)
08.06.2013 06:20 13,1 C 12,3 C 91 % 1018,1 hPa 0,0 l/m 0 min 0 min 0,0 UV-I 35 W/m 12,9 km/h (3 Bft)
08.06.2013 06:22 13,1 C 12,3 C 90 % 1018,0 hPa 0,0 l/m 0 min 0 min 0,0 UV-I 39 W/m 12,9 km/h (3 Bft)
08.06.2013 06:24 13,1 C 12,3 C 91 % 1017,9 hPa 0,0 l/m 0 min 0 min 0,0 UV-I 40 W/m 7,7 km/h (2 Bft)
08.06.2013 06:26 13,1 C 12,3 C 91 % 1018,0 hPa 0,0 l/m 0 min 0 min 0,0 UV-I 44 W/m 12,9 km/h (3 Bft)
08.06.2013 06:28 13,1 C 12,3 C 91 % 1018,0 hPa 0,0 l/m 0 min 0 min 0,0 UV-I 47 W/m 10,3 km/h (2 Bft)
08.06.2013 06:30 13,1 C 12,3 C 91 % 1018,0 hPa 0,0 l/m 0 min 0 min 0,0 UV-I 49 W/m 12,9 km/h (3 Bft)
08.06.2013 06:32 13,0 C 12,3 C 91 % 1018,0 hPa 0,0 l/m 0 min 0 min 0,0 UV-I 51 W/m 12,9 km/h (3 Bft)
08.06.2013 06:34 13,0 C 12,3 C 91 % 1018,1 hPa 0,0 l/m 0 min 0 min 0,0 UV-I 53 W/m 7,7 km/h (2 Bft)
08.06.2013 06:36 13,0 C 12,3 C 91 % 1018,0 hPa 0,0 l/m 0 min 0 min 0,0 UV-I 53 W/m 7,7 km/h (2 Bft)
08.06.2013 06:38 13,0 C 12,3 C 91 % 1018,0 hPa 0,0 l/m 0 min 0 min 0,0 UV-I 53 W/m 12,9 km/h (3 Bft)
08.06.2013 06:40 13,0 C 12,3 C 91 % 1018,0 hPa 0,0 l/m 0 min 0 min 0,0 UV-I 53 W/m 12,9 km/h (3 Bft)
08.06.2013 06:42 13,0 C 12,3 C 91 % 1018,1 hPa 0,0 l/m 0 min 0 min 0,0 UV-I 54 W/m 7,7 km/h (2 Bft)
08.06.2013 06:44 13,0 C 12,3 C 91 % 1018,1 hPa 0,0 l/m 0 min 0 min 0,0 UV-I 54 W/m 10,3 km/h (2 Bft)
08.06.2013 06:46 13,0 C 12,3 C 91 % 1018,1 hPa 0,0 l/m 0 min 0 min 0,0 UV-I 56 W/m 7,7 km/h (2 Bft)
08.06.2013 06:48 13,0 C 12,3 C 91 % 1018,1 hPa 0,0 l/m 0 min 0 min 0,0 UV-I 58 W/m 10,3 km/h (2 Bft)
08.06.2013 06:50 13,0 C 12,3 C 91 % 1018,0 hPa 0,0 l/m 0 min 0 min 0,0 UV-I 60 W/m 10,3 km/h (2 Bft)
08.06.2013 06:52 13,0 C 12,3 C 91 % 1018,2 hPa 0,0 l/m 0 min 0 min 0,0 UV-I 60 W/m 7,7 km/h (2 Bft)
08.06.2013 06:54 13,0 C 12,3 C 91 % 1018,0 hPa 0,0 l/m 0 min 0 min 0,0 UV-I 58 W/m 7,7 km/h (2 Bft)
08.06.2013 06:56 13,0 C 12,3 C 91 % 1018,1 hPa 0,0 l/m 0 min 0 min 0,0 UV-I 58 W/m 10,3 km/h (2 Bft)
08.06.2013 06:58 13,0 C 12,3 C 91 % 1018,1 hPa 0,0 l/m 0 min 0 min 0,0 UV-I 60 W/m 12,9 km/h (3 Bft)
08.06.2013 07:00 13,0 C 12,3 C 91 % 1018,1 hPa 0,0 l/m 0 min 0 min 0,0 UV-I 60 W/m 10,3 km/h (2 Bft)
08.06.2013 07:02 13,0 C 12,3 C 91 % 1018,0 hPa 0,0 l/m 0 min 0 min 0,0 UV-I 62 W/m 10,3 km/h (2 Bft)
08.06.2013 07:04 13,0 C 12,3 C 91 % 1018,1 hPa 0,0 l/m 0 min 0 min 0,0 UV-I 62 W/m 15,4 km/h (3 Bft)
08.06.2013 07:06 13,0 C 12,3 C 91 % 1018,1 hPa 0,0 l/m 0 min 0 min 0,0 UV-I 63 W/m 7,7 km/h (2 Bft)
08.06.2013 07:08 13,0 C 12,3 C 91 % 1018,2 hPa 0,0 l/m 0 min 0 min 0,0 UV-I 63 W/m 10,3 km/h (2 Bft)
08.06.2013 07:10 13,0 C 12,3 C 91 % 1018,1 hPa 0,0 l/m 0 min 0 min 0,0 UV-I 65 W/m 10,3 km/h (2 Bft)
08.06.2013 07:12 13,0 C 12,3 C 91 % 1018,1 hPa 0,0 l/m 0 min 0 min 0,0 UV-I 67 W/m 5,1 km/h (1 Bft)
08.06.2013 07:14 13,0 C 12,3 C 91 % 1018,0 hPa 0,0 l/m 0 min 0 min 0,0 UV-I 69 W/m 15,4 km/h (3 Bft)
08.06.2013 07:16 13,1 C 12,3 C 91 % 1018,0 hPa 0,0 l/m 0 min 0 min 0,0 UV-I 70 W/m 2,6 km/h (1 Bft)
08.06.2013 07:18 13,1 C 12,3 C 91 % 1018,0 hPa 0,0 l/m 0 min 0 min 0,0 UV-I 72 W/m 10,3 km/h (2 Bft)
08.06.2013 07:20 13,1 C 12,3 C 91 % 1018,1 hPa 0,0 l/m 0 min 0 min 0,0 UV-I 72 W/m 18,0 km/h (3 Bft)
08.06.2013 07:22 13,1 C 12,3 C 91 % 1018,1 hPa 0,0 l/m 0 min 0 min 0,0 UV-I 76 W/m 12,9 km/h (3 Bft)
08.06.2013 07:24 13,1 C 12,3 C 91 % 1018,2 hPa 0,0 l/m 0 min 0 min 0,0 UV-I 77 W/m 12,9 km/h (3 Bft)
08.06.2013 07:26 13,1 C 12,9 C 91 % 1018,1 hPa 0,0 l/m 0 min 0 min 0,0 UV-I 77 W/m 7,7 km/h (2 Bft)
08.06.2013 07:28 13,1 C 12,9 C 91 % 1018,1 hPa 0,0 l/m 0 min 0 min 0,0 UV-I 77 W/m 12,9 km/h (3 Bft)
08.06.2013 07:30 13,1 C 12,9 C 91 % 1018,1 hPa 0,0 l/m 0 min 0 min 0,0 UV-I 79 W/m 12,9 km/h (3 Bft)
08.06.2013 07:32 13,2 C 12,9 C 91 % 1018,1 hPa 0,0 l/m 0 min 0 min 0,0 UV-I 81 W/m 12,9 km/h (3 Bft)
08.06.2013 07:34 13,2 C 12,9 C 91 % 1018,1 hPa 0,0 l/m 0 min 0 min 0,0 UV-I 83 W/m 0,0 km/h (0 Bft)
08.06.2013 07:36 13,2 C 12,9 C 91 % 1018,2 hPa 0,0 l/m 0 min 0 min 0,0 UV-I 84 W/m 15,4 km/h (3 Bft)
08.06.2013 07:38 13,2 C 12,9 C 91 % 1018,2 hPa 0,0 l/m 0 min 0 min 0,0 UV-I 88 W/m 18,0 km/h (3 Bft)
08.06.2013 07:40 13,2 C 12,9 C 90 % 1018,2 hPa 0,0 l/m 0 min 0 min 0,0 UV-I 88 W/m 10,3 km/h (2 Bft)
08.06.2013 07:42 13,2 C 12,9 C 90 % 1018,1 hPa 0,0 l/m 0 min 0 min 0,0 UV-I 90 W/m 7,7 km/h (2 Bft)
08.06.2013 07:44 13,3 C 12,9 C 90 % 1018,1 hPa 0,0 l/m 0 min 0 min 0,0 UV-I 93 W/m 12,9 km/h (3 Bft)
08.06.2013 07:46 13,3 C 12,9 C 90 % 1018,2 hPa 0,0 l/m 0 min 0 min 0,0 UV-I 97 W/m 18,0 km/h (3 Bft)
08.06.2013 07:48 13,3 C 12,9 C 90 % 1018,1 hPa 0,0 l/m 0 min 0 min 0,0 UV-I 98 W/m 15,4 km/h (3 Bft)
08.06.2013 07:50 13,3 C 12,9 C 90 % 1018,2 hPa 0,0 l/m 2 min 0 min 0,0 UV-I 190 W/m 15,4 km/h (3 Bft)
08.06.2013 07:52 13,3 C 12,9 C 90 % 1018,1 hPa 0,0 l/m 2 min 0 min 0,0 UV-I 204 W/m 18,0 km/h (3 Bft)
08.06.2013 07:54 13,3 C 12,9 C 90 % 1018,2 hPa 0,0 l/m 2 min 0 min 0,0 UV-I 200 W/m 12,9 km/h (3 Bft)
08.06.2013 07:56 13,3 C 12,9 C 89 % 1018,1 hPa 0,0 l/m 2 min 0 min 0,0 UV-I 213 W/m 15,4 km/h (3 Bft)
08.06.2013 07:58 13,3 C 12,9 C 89 % 1018,1 hPa 0,0 l/m 2 min 0 min 0,0 UV-I 227 W/m 15,4 km/h (3 Bft)
08.06.2013 08:00 13,4 C 12,9 C 89 % 1018,1 hPa 0,0 l/m 0 min 0 min 0,0 UV-I 118 W/m 15,4 km/h (3 Bft)
08.06.2013 08:02 13,4 C 12,9 C 89 % 1018,1 hPa 0,0 l/m 0 min 0 min 0,0 UV-I 153 W/m 12,9 km/h (3 Bft)
08.06.2013 08:04 13,4 C 12,9 C 89 % 1018,1 hPa 0,0 l/m 2 min 0 min 0,0 UV-I 243 W/m 15,4 km/h (3 Bft)
08.06.2013 08:06 13,4 C 12,9 C 89 % 1018,0 hPa 0,0 l/m 2 min 0 min 0,0 UV-I 248 W/m 10,3 km/h (2 Bft)
08.06.2013 08:08 13,5 C 12,9 C 89 % 1018,1 hPa 0,0 l/m 2 min 0 min 0,0 UV-I 223 W/m 15,4 km/h (3 Bft)
08.06.2013 08:10 13,5 C 12,9 C 89 % 1018,1 hPa 0,0 l/m 0 min 0 min 0,0 UV-I 141 W/m 12,9 km/h (3 Bft)
08.06.2013 08:12 13,5 C 12,9 C 89 % 1018,2 hPa 0,0 l/m 0 min 0 min 0,0 UV-I 113 W/m 12,9 km/h (3 Bft)
08.06.2013 08:14 13,5 C 12,9 C 89 % 1018,2 hPa 0,0 l/m 0 min 0 min 0,0 UV-I 151 W/m 12,9 km/h (3 Bft)
08.06.2013 08:16 13,6 C 12,9 C 89 % 1018,2 hPa 0,0 l/m 2 min 0 min 0,0 UV-I 276 W/m 18,0 km/h (3 Bft)
08.06.2013 08:18 13,6 C 12,9 C 89 % 1018,2 hPa 0,0 l/m 2 min 0 min 0,0 UV-I 276 W/m 20,6 km/h (4 Bft)
08.06.2013 08:20 13,6 C 13,4 C 88 % 1018,2 hPa 0,0 l/m 2 min 0 min 0,0 UV-I 281 W/m 10,3 km/h (2 Bft)
08.06.2013 08:22 13,6 C 13,4 C 88 % 1018,2 hPa 0,0 l/m 2 min 0 min 0,0 UV-I 287 W/m 10,3 km/h (2 Bft)
08.06.2013 08:24 13,7 C 13,4 C 89 % 1018,2 hPa 0,0 l/m 2 min 0 min 0,0 UV-I 294 W/m 2,6 km/h (1 Bft)
08.06.2013 08:26 13,7 C 13,4 C 89 % 1018,3 hPa 0,0 l/m 2 min 0 min 0,0 UV-I 295 W/m 15,4 km/h (3 Bft)
08.06.2013 08:28 13,7 C 13,4 C 89 % 1018,2 hPa 0,0 l/m 2 min 0 min 0,0 UV-I 288 W/m 7,7 km/h (2 Bft)
08.06.2013 08:30 13,8 C 14,0 C 89 % 1018,2 hPa 0,0 l/m 2 min 0 min 0,0 UV-I 306 W/m 5,1 km/h (1 Bft)
08.06.2013 08:32 13,9 C 14,0 C 89 % 1018,2 hPa 0,0 l/m 2 min 0 min 0,0 UV-I 302 W/m 7,7 km/h (2 Bft)
08.06.2013 08:34 14,0 C 14,0 C 89 % 1018,2 hPa 0,0 l/m 2 min 0 min 0,0 UV-I 302 W/m 15,4 km/h (3 Bft)
08.06.2013 08:36 14,0 C 14,0 C 88 % 1018,2 hPa 0,0 l/m 0 min 0 min 0,0 UV-I 214 W/m 10,3 km/h (2 Bft)
08.06.2013 08:38 14,0 C 13,4 C 88 % 1018,2 hPa 0,0 l/m 0 min 0 min 0,0 UV-I 142 W/m 15,4 km/h (3 Bft)
08.06.2013 08:40 14,0 C 13,4 C 88 % 1018,2 hPa 0,0 l/m 0 min 0 min 0,0 UV-I 176 W/m 15,4 km/h (3 Bft)
08.06.2013 08:42 14,0 C 13,4 C 87 % 1018,2 hPa 0,0 l/m 2 min 0 min 0,0 UV-I 346 W/m 20,6 km/h (4 Bft)
08.06.2013 08:44 14,0 C 13,4 C 87 % 1018,2 hPa 0,0 l/m 2 min 0 min 0,0 UV-I 350 W/m 15,4 km/h (3 Bft)
08.06.2013 08:46 14,0 C 14,0 C 87 % 1018,2 hPa 0,0 l/m 2 min 0 min 0,0 UV-I 341 W/m 18,0 km/h (3 Bft)
08.06.2013 08:48 14,1 C 14,0 C 87 % 1018,2 hPa 0,0 l/m 2 min 0 min 0,0 UV-I 329 W/m 15,4 km/h (3 Bft)
08.06.2013 08:50 14,2 C 14,0 C 87 % 1018,2 hPa 0,0 l/m 2 min 0 min 0,0 UV-I 345 W/m 7,7 km/h (2 Bft)
08.06.2013 08:52 14,2 C 14,0 C 87 % 1018,2 hPa 0,0 l/m 2 min 0 min 0,5 UV-I 355 W/m 12,9 km/h (3 Bft)
08.06.2013 08:54 14,3 C 14,0 C 87 % 1018,2 hPa 0,0 l/m 2 min 0 min 0,5 UV-I 367 W/m 12,9 km/h (3 Bft)
08.06.2013 08:56 14,4 C 14,0 C 87 % 1018,2 hPa 0,0 l/m 2 min 0 min 0,5 UV-I 308 W/m 15,4 km/h (3 Bft)
08.06.2013 08:58 14,4 C 14,0 C 86 % 1018,2 hPa 0,0 l/m 2 min 0 min 0,6 UV-I 369 W/m 12,9 km/h (3 Bft)
08.06.2013 09:00 14,4 C 14,0 C 86 % 1018,3 hPa 0,0 l/m 2 min 0 min 0,6 UV-I 399 W/m 15,4 km/h (3 Bft)
08.06.2013 09:02 14,5 C 14,6 C 86 % 1018,3 hPa 0,0 l/m 2 min 0 min 0,6 UV-I 403 W/m 10,3 km/h (2 Bft)
08.06.2013 09:06 14,7 C 14,6 C 86 % 1018,3 hPa 0,0 l/m 2 min 0 min 0,6 UV-I 394 W/m 12,9 km/h (3 Bft)
08.06.2013 09:08 14,7 C 14,6 C 86 % 1018,2 hPa 0,0 l/m 2 min 0 min 0,7 UV-I 422 W/m 10,3 km/h (2 Bft)
08.06.2013 09:10 14,8 C 15,1 C 86 % 1018,2 hPa 0,0 l/m 2 min 0 min 0,7 UV-I 406 W/m 10,3 km/h (2 Bft)
08.06.2013 09:12 14,9 C 15,1 C 86 % 1018,2 hPa 0,0 l/m 2 min 0 min 0,7 UV-I 418 W/m 12,9 km/h (3 Bft)
08.06.2013 09:14 15,0 C 15,7 C 86 % 1018,2 hPa 0,0 l/m 2 min 0 min 0,8 UV-I 446 W/m 10,3 km/h (2 Bft)
08.06.2013 09:16 15,1 C 15,1 C 86 % 1018,2 hPa 0,0 l/m 0 min 0 min 0,7 UV-I 253 W/m 18,0 km/h (3 Bft)
08.06.2013 09:18 15,1 C 15,1 C 85 % 1018,3 hPa 0,0 l/m 2 min 0 min 0,8 UV-I 480 W/m 12,9 km/h (3 Bft)
08.06.2013 09:20 15,2 C 15,7 C 85 % 1018,2 hPa 0,0 l/m 2 min 0 min 0,8 UV-I 374 W/m 10,3 km/h (2 Bft)
08.06.2013 09:22 15,3 C 15,1 C 85 % 1018,2 hPa 0,0 l/m 0 min 0 min 0,8 UV-I 283 W/m 23,2 km/h (4 Bft)
08.06.2013 09:24 15,3 C 15,1 C 84 % 1018,3 hPa 0,0 l/m 2 min 0 min 0,9 UV-I 478 W/m 18,0 km/h (3 Bft)
08.06.2013 09:26 15,3 C 15,1 C 84 % 1018,2 hPa 0,0 l/m 2 min 0 min 0,9 UV-I 367 W/m 15,4 km/h (3 Bft)
08.06.2013 09:28 15,4 C 15,1 C 84 % 1018,2 hPa 0,0 l/m 2 min 0 min 0,9 UV-I 383 W/m 15,4 km/h (3 Bft)
08.06.2013 09:30 15,4 C 15,7 C 83 % 1018,1 hPa 0,0 l/m 2 min 0 min 1,0 UV-I 476 W/m 10,3 km/h (2 Bft)
08.06.2013 09:32 15,6 C 15,7 C 83 % 1018,2 hPa 0,0 l/m 2 min 0 min 0,8 UV-I 476 W/m 12,9 km/h (3 Bft)
08.06.2013 09:34 15,6 C 15,7 C 83 % 1018,2 hPa 0,0 l/m 0 min 0 min 1,0 UV-I 225 W/m 12,9 km/h (3 Bft)
08.06.2013 09:36 15,6 C 15,7 C 83 % 1018,3 hPa 0,0 l/m 2 min 0 min 1,1 UV-I 490 W/m 15,4 km/h (3 Bft)
08.06.2013 09:38 15,6 C 15,7 C 82 % 1018,3 hPa 0,0 l/m 2 min 0 min 1,0 UV-I 503 W/m 20,6 km/h (4 Bft)
08.06.2013 09:40 15,7 C 15,7 C 83 % 1018,2 hPa 0,0 l/m 2 min 0 min 1,2 UV-I 480 W/m 10,3 km/h (2 Bft)
08.06.2013 09:42 15,8 C 16,2 C 83 % 1018,2 hPa 0,0 l/m 2 min 0 min 1,2 UV-I 531 W/m 12,9 km/h (3 Bft)
08.06.2013 09:44 15,9 C 16,2 C 82 % 1018,2 hPa 0,0 l/m 2 min 0 min 1,3 UV-I 557 W/m 15,4 km/h (3 Bft)
08.06.2013 09:46 16,1 C 16,2 C 82 % 1018,2 hPa 0,0 l/m 2 min 0 min 1,3 UV-I 566 W/m 15,4 km/h (3 Bft)
08.06.2013 09:48 16,2 C 16,2 C 81 % 1018,2 hPa 0,0 l/m 2 min 0 min 1,4 UV-I 543 W/m 15,4 km/h (3 Bft)
08.06.2013 09:50 16,1 C 16,2 C 81 % 1018,2 hPa 0,0 l/m 2 min 0 min 1,4 UV-I 536 W/m 12,9 km/h (3 Bft)
08.06.2013 09:52 16,2 C 16,8 C 81 % 1018,3 hPa 0,0 l/m 2 min 0 min 1,4 UV-I 550 W/m 18,0 km/h (3 Bft)
08.06.2013 09:54 16,2 C 16,8 C 81 % 1018,3 hPa 0,0 l/m 2 min 0 min 1,4 UV-I 543 W/m 10,3 km/h (2 Bft)
08.06.2013 09:56 16,3 C 17,3 C 81 % 1018,3 hPa 0,0 l/m 2 min 0 min 1,4 UV-I 540 W/m 18,0 km/h (3 Bft)
08.06.2013 09:58 16,4 C 17,9 C 81 % 1018,2 hPa 0,0 l/m 2 min 0 min 1,5 UV-I 547 W/m 18,0 km/h (3 Bft)
08.06.2013 10:00 16,4 C 19,0 C 80 % 1018,2 hPa 0,0 l/m 2 min 0 min 1,5 UV-I 527 W/m 18,0 km/h (3 Bft)
08.06.2013 10:02 16,5 C 19,6 C 80 % 1018,2 hPa 0,0 l/m 2 min 0 min 1,5 UV-I 541 W/m 12,9 km/h (3 Bft)
08.06.2013 10:04 16,6 C 20,1 C 80 % 1018,2 hPa 0,0 l/m 2 min 0 min 1,6 UV-I 566 W/m 18,0 km/h (3 Bft)
08.06.2013 10:06 16,6 C 20,1 C 80 % 1018,2 hPa 0,0 l/m 2 min 0 min 1,6 UV-I 529 W/m 18,0 km/h (3 Bft)
08.06.2013 10:08 16,6 C 20,7 C 80 % 1018,2 hPa 0,0 l/m 2 min 0 min 1,7 UV-I 543 W/m 12,9 km/h (3 Bft)
08.06.2013 10:10 16,7 C 20,7 C 80 % 1018,2 hPa 0,0 l/m 2 min 0 min 1,7 UV-I 564 W/m 18,0 km/h (3 Bft)
08.06.2013 10:12 16,8 C 20,7 C 79 % 1018,1 hPa 0,0 l/m 2 min 0 min 1,8 UV-I 589 W/m 12,9 km/h (3 Bft)
08.06.2013 10:14 16,8 C 21,2 C 79 % 1018,2 hPa 0,0 l/m 2 min 0 min 1,8 UV-I 608 W/m 20,6 km/h (4 Bft)
08.06.2013 10:16 16,8 C 20,7 C 78 % 1018,2 hPa 0,0 l/m 2 min 0 min 1,9 UV-I 622 W/m 23,2 km/h (4 Bft)
08.06.2013 10:18 16,7 C 20,1 C 78 % 1018,2 hPa 0,0 l/m 2 min 0 min 1,7 UV-I 555 W/m 18,0 km/h (3 Bft)
08.06.2013 10:20 16,7 C 20,1 C 79 % 1018,2 hPa 0,0 l/m 2 min 0 min 1,6 UV-I 520 W/m 12,9 km/h (3 Bft)
08.06.2013 10:22 16,7 C 20,7 C 79 % 1018,2 hPa 0,0 l/m 2 min 0 min 1,7 UV-I 520 W/m 15,4 km/h (3 Bft)
08.06.2013 10:24 16,8 C 20,7 C 79 % 1018,2 hPa 0,0 l/m 2 min 0 min 1,4 UV-I 594 W/m 12,9 km/h (3 Bft)
08.06.2013 10:26 16,8 C 19,6 C 79 % 1018,2 hPa 0,0 l/m 0 min 0 min 1,4 UV-I 334 W/m 12,9 km/h (3 Bft)
08.06.2013 10:28 16,8 C 18,4 C 78 % 1018,1 hPa 0,0 l/m 0 min 0 min 1,3 UV-I 272 W/m 12,9 km/h (3 Bft)
08.06.2013 10:30 16,7 C 17,3 C 78 % 1018,1 hPa 0,0 l/m 0 min 0 min 1,2 UV-I 241 W/m 12,9 km/h (3 Bft)
08.06.2013 10:32 16,6 C 17,3 C 79 % 1018,1 hPa 0,0 l/m 0 min 0 min 1,3 UV-I 246 W/m 10,3 km/h (2 Bft)
08.06.2013 10:34 16,5 C 16,8 C 79 % 1018,0 hPa 0,0 l/m 0 min 0 min 1,2 UV-I 244 W/m 20,6 km/h (4 Bft)
08.06.2013 10:36 16,4 C 16,8 C 79 % 1018,0 hPa 0,0 l/m 0 min 0 min 1,3 UV-I 262 W/m 18,0 km/h (3 Bft)
08.06.2013 10:38 16,3 C 16,8 C 80 % 1018,0 hPa 0,0 l/m 0 min 0 min 1,3 UV-I 294 W/m 20,6 km/h (4 Bft)
08.06.2013 10:40 16,2 C 17,3 C 80 % 1018,0 hPa 0,0 l/m 2 min 0 min 1,7 UV-I 475 W/m 15,4 km/h (3 Bft)
08.06.2013 10:42 16,2 C 17,3 C 80 % 1018,0 hPa 0,0 l/m 0 min 0 min 1,5 UV-I 339 W/m 10,3 km/h (2 Bft)
08.06.2013 10:44 16,2 C 17,3 C 80 % 1018,0 hPa 0,0 l/m 0 min 0 min 1,5 UV-I 346 W/m 15,4 km/h (3 Bft)
08.06.2013 10:46 16,2 C 17,9 C 81 % 1017,9 hPa 0,0 l/m 0 min 0 min 1,9 UV-I 357 W/m 12,9 km/h (3 Bft)
08.06.2013 10:48 16,5 C 18,4 C 81 % 1017,9 hPa 0,0 l/m 0 min 0 min 1,9 UV-I 357 W/m 7,7 km/h (2 Bft)
08.06.2013 10:50 16,6 C 18,4 C 80 % 1017,8 hPa 0,0 l/m 0 min 0 min 2,2 UV-I 385 W/m 15,4 km/h (3 Bft)
08.06.2013 10:52 16,7 C 20,1 C 80 % 1017,8 hPa 0,0 l/m 2 min 0 min 2,6 UV-I 728 W/m 18,0 km/h (3 Bft)
08.06.2013 10:54 16,7 C 21,2 C 79 % 1017,8 hPa 0,0 l/m 2 min 0 min 2,6 UV-I 719 W/m 23,2 km/h (4 Bft)
08.06.2013 10:56 16,9 C 21,8 C 80 % 1017,8 hPa 0,0 l/m 2 min 0 min 2,5 UV-I 693 W/m 10,3 km/h (2 Bft)
08.06.2013 10:58 17,1 C 21,2 C 79 % 1017,7 hPa 0,0 l/m 2 min 0 min 2,6 UV-I 698 W/m 20,6 km/h (4 Bft)
08.06.2013 11:00 17,1 C 20,7 C 78 % 1017,8 hPa 0,0 l/m 2 min 0 min 2,7 UV-I 687 W/m 23,2 km/h (4 Bft)
08.06.2013 11:02 17,1 C 21,2 C 79 % 1017,7 hPa 0,0 l/m 2 min 0 min 2,7 UV-I 694 W/m 23,2 km/h (4 Bft)
08.06.2013 11:04 17,3 C 22,3 C 79 % 1017,7 hPa 0,0 l/m 2 min 0 min 2,7 UV-I 698 W/m 15,4 km/h (3 Bft)
08.06.2013 11:06 17,6 C 22,9 C 78 % 1017,6 hPa 0,0 l/m 2 min 0 min 2,7 UV-I 679 W/m 12,9 km/h (3 Bft)
08.06.2013 11:08 17,8 C 22,3 C 77 % 1017,6 hPa 0,0 l/m 2 min 0 min 2,7 UV-I 680 W/m 18,0 km/h (3 Bft)
08.06.2013 11:10 17,9 C 21,8 C 77 % 1017,6 hPa 0,0 l/m 2 min 0 min 2,8 UV-I 689 W/m 18,0 km/h (3 Bft)
08.06.2013 11:12 17,9 C 22,3 C 77 % 1017,6 hPa 0,0 l/m 2 min 0 min 2,8 UV-I 693 W/m 18,0 km/h (3 Bft)
08.06.2013 11:14 17,8 C 22,3 C 77 % 1017,6 hPa 0,0 l/m 2 min 0 min 2,9 UV-I 698 W/m 12,9 km/h (3 Bft)
08.06.2013 11:16 17,7 C 21,8 C 77 % 1017,6 hPa 0,0 l/m 2 min 0 min 2,9 UV-I 701 W/m 18,0 km/h (3 Bft)
08.06.2013 11:18 17,7 C 21,8 C 76 % 1017,6 hPa 0,0 l/m 2 min 0 min 3,0 UV-I 708 W/m 20,6 km/h (4 Bft)
08.06.2013 11:20 17,6 C 21,8 C 77 % 1017,6 hPa 0,0 l/m 2 min 0 min 3,0 UV-I 703 W/m 12,9 km/h (3 Bft)
08.06.2013 11:22 17,7 C 22,9 C 79 % 1017,6 hPa 0,0 l/m 2 min 0 min 3,0 UV-I 703 W/m 10,3 km/h (2 Bft)
08.06.2013 11:24 17,9 C 23,4 C 78 % 1017,6 hPa 0,0 l/m 2 min 0 min 3,0 UV-I 693 W/m 18,0 km/h (3 Bft)
08.06.2013 11:26 17,9 C 22,9 C 77 % 1017,6 hPa 0,0 l/m 2 min 0 min 3,1 UV-I 708 W/m 20,6 km/h (4 Bft)
08.06.2013 11:28 18,0 C 23,4 C 77 % 1017,6 hPa 0,0 l/m 2 min 0 min 3,2 UV-I 726 W/m 15,4 km/h (3 Bft)
08.06.2013 11:30 18,2 C 23,4 C 77 % 1017,6 hPa 0,0 l/m 2 min 0 min 3,2 UV-I 724 W/m 10,3 km/h (2 Bft)
08.06.2013 11:32 18,3 C 23,4 C 76 % 1017,5 hPa 0,0 l/m 2 min 0 min 3,2 UV-I 719 W/m 12,9 km/h (3 Bft)
08.06.2013 11:34 18,3 C 23,4 C 76 % 1017,4 hPa 0,0 l/m 2 min 0 min 3,2 UV-I 710 W/m 10,3 km/h (2 Bft)
08.06.2013 11:36 18,2 C 22,9 C 76 % 1017,5 hPa 0,0 l/m 2 min 0 min 3,2 UV-I 712 W/m 20,6 km/h (4 Bft)
08.06.2013 11:38 18,3 C 22,9 C 77 % 1017,5 hPa 0,0 l/m 2 min 0 min 3,3 UV-I 724 W/m 18,0 km/h (3 Bft)
08.06.2013 11:40 18,3 C 22,9 C 76 % 1017,5 hPa 0,0 l/m 2 min 0 min 3,3 UV-I 721 W/m 10,3 km/h (2 Bft)
08.06.2013 11:42 18,3 C 22,3 C 76 % 1017,4 hPa 0,0 l/m 2 min 0 min 3,4 UV-I 733 W/m 20,6 km/h (4 Bft)
08.06.2013 11:44 18,2 C 21,8 C 76 % 1017,4 hPa 0,0 l/m 2 min 0 min 3,4 UV-I 737 W/m 15,4 km/h (3 Bft)
08.06.2013 11:46 18,4 C 22,3 C 77 % 1017,3 hPa 0,0 l/m 2 min 0 min 3,4 UV-I 737 W/m 10,3 km/h (2 Bft)
08.06.2013 11:48 18,5 C 21,8 C 76 % 1017,4 hPa 0,0 l/m 2 min 0 min 3,4 UV-I 733 W/m 20,6 km/h (4 Bft)
08.06.2013 11:50 18,4 C 21,8 C 75 % 1017,4 hPa 0,0 l/m 2 min 0 min 3,5 UV-I 740 W/m 20,6 km/h (4 Bft)
08.06.2013 11:52 18,5 C 22,3 C 76 % 1017,3 hPa 0,0 l/m 2 min 0 min 3,5 UV-I 738 W/m 7,7 km/h (2 Bft)
08.06.2013 11:54 18,5 C 22,3 C 76 % 1017,3 hPa 0,0 l/m 2 min 0 min 3,5 UV-I 747 W/m 20,6 km/h (4 Bft)
08.06.2013 11:56 18,6 C 22,9 C 76 % 1017,2 hPa 0,0 l/m 2 min 0 min 3,6 UV-I 751 W/m 15,4 km/h (3 Bft)
08.06.2013 11:58 18,6 C 22,9 C 75 % 1017,2 hPa 0,0 l/m 2 min 0 min 3,6 UV-I 749 W/m 23,2 km/h (4 Bft)
08.06.2013 12:00 18,4 C 22,9 C 75 % 1017,2 hPa 0,0 l/m 2 min 0 min 3,6 UV-I 749 W/m 18,0 km/h (3 Bft)
08.06.2013 12:02 18,4 C 24,0 C 77 % 1017,2 hPa 0,0 l/m 2 min 0 min 3,6 UV-I 761 W/m 18,0 km/h (3 Bft)
08.06.2013 12:04 18,4 C 24,6 C 76 % 1017,1 hPa 0,0 l/m 2 min 0 min 3,7 UV-I 756 W/m 18,0 km/h (3 Bft)
08.06.2013 12:06 18,6 C 24,6 C 76 % 1017,1 hPa 0,0 l/m 2 min 0 min 3,7 UV-I 759 W/m 15,4 km/h (3 Bft)
08.06.2013 12:08 18,8 C 24,6 C 75 % 1017,1 hPa 0,0 l/m 2 min 0 min 3,7 UV-I 766 W/m 12,9 km/h (3 Bft)
08.06.2013 12:10 18,8 C 24,6 C 75 % 1017,1 hPa 0,0 l/m 2 min 0 min 3,7 UV-I 761 W/m 15,4 km/h (3 Bft)
08.06.2013 12:12 18,9 C 25,1 C 76 % 1017,1 hPa 0,0 l/m 2 min 0 min 3,7 UV-I 761 W/m 15,4 km/h (3 Bft)
08.06.2013 12:14 18,9 C 24,6 C 74 % 1017,1 hPa 0,0 l/m 2 min 0 min 3,7 UV-I 768 W/m 25,7 km/h (4 Bft)
08.06.2013 12:16 18,8 C 24,0 C 74 % 1017,1 hPa 0,0 l/m 2 min 0 min 3,8 UV-I 773 W/m 20,6 km/h (4 Bft)
08.06.2013 12:18 19,0 C 24,6 C 76 % 1017,0 hPa 0,0 l/m 2 min 0 min 3,8 UV-I 775 W/m 10,3 km/h (2 Bft)
08.06.2013 12:20 19,3 C 25,1 C 75 % 1017,0 hPa 0,0 l/m 2 min 0 min 3,8 UV-I 779 W/m 12,9 km/h (3 Bft)
08.06.2013 12:22 19,3 C 25,7 C 74 % 1017,0 hPa 0,0 l/m 2 min 0 min 3,8 UV-I 775 W/m 23,2 km/h (4 Bft)
08.06.2013 12:24 19,3 C 25,1 C 73 % 1017,1 hPa 0,0 l/m 2 min 0 min 3,9 UV-I 784 W/m 15,4 km/h (3 Bft)
08.06.2013 12:26 19,4 C 25,7 C 75 % 1017,1 hPa 0,0 l/m 2 min 0 min 3,9 UV-I 780 W/m 10,3 km/h (2 Bft)
08.06.2013 12:28 19,3 C 24,6 C 73 % 1017,1 hPa 0,0 l/m 2 min 0 min 3,9 UV-I 784 W/m 23,2 km/h (4 Bft)
08.06.2013 12:30 19,3 C 24,6 C 74 % 1017,1 hPa 0,0 l/m 2 min 0 min 4,0 UV-I 793 W/m 20,6 km/h (4 Bft)
08.06.2013 12:32 19,4 C 25,7 C 75 % 1017,0 hPa 0,0 l/m 2 min 0 min 3,9 UV-I 789 W/m 18,0 km/h (3 Bft)
08.06.2013 12:34 19,4 C 25,1 C 74 % 1017,0 hPa 0,0 l/m 2 min 0 min 3,9 UV-I 788 W/m 23,2 km/h (4 Bft)
08.06.2013 12:36 19,4 C 24,6 C 74 % 1016,9 hPa 0,0 l/m 2 min 0 min 3,9 UV-I 786 W/m 20,6 km/h (4 Bft)
08.06.2013 12:38 19,6 C 25,1 C 76 % 1016,9 hPa 0,0 l/m 2 min 0 min 3,9 UV-I 788 W/m 15,4 km/h (3 Bft)
08.06.2013 12:40 19,8 C 25,7 C 73 % 1016,9 hPa 0,0 l/m 2 min 0 min 4,0 UV-I 791 W/m 18,0 km/h (3 Bft)
08.06.2013 12:42 19,7 C 25,7 C 74 % 1016,9 hPa 0,0 l/m 2 min 0 min 3,9 UV-I 788 W/m 18,0 km/h (3 Bft)
08.06.2013 12:44 20,0 C 26,2 C 73 % 1016,9 hPa 0,0 l/m 2 min 0 min 4,0 UV-I 788 W/m 12,9 km/h (3 Bft)
08.06.2013 12:46 20,3 C 26,2 C 73 % 1016,9 hPa 0,0 l/m 2 min 0 min 4,0 UV-I 798 W/m 10,3 km/h (2 Bft)
08.06.2013 12:48 20,2 C 25,7 C 71 % 1016,8 hPa 0,0 l/m 2 min 0 min 4,0 UV-I 796 W/m 18,0 km/h (3 Bft)
08.06.2013 12:50 19,9 C 25,1 C 72 % 1016,9 hPa 0,0 l/m 2 min 0 min 3,9 UV-I 803 W/m 18,0 km/h (3 Bft)
08.06.2013 12:52 19,9 C 25,1 C 73 % 1016,8 hPa 0,0 l/m 2 min 0 min 3,9 UV-I 805 W/m 12,9 km/h (3 Bft)
08.06.2013 12:54 19,9 C 24,6 C 72 % 1016,8 hPa 0,0 l/m 2 min 0 min 3,7 UV-I 800 W/m 15,4 km/h (3 Bft)
08.06.2013 12:56 19,9 C 25,1 C 73 % 1016,8 hPa 0,0 l/m 2 min 0 min 3,4 UV-I 803 W/m 12,9 km/h (3 Bft)
08.06.2013 12:58 19,9 C 25,1 C 73 % 1016,7 hPa 0,0 l/m 2 min 0 min 3,2 UV-I 810 W/m 20,6 km/h (4 Bft)
08.06.2013 13:00 20,0 C 25,1 C 72 % 1016,7 hPa 0,0 l/m 2 min 0 min 3,1 UV-I 814 W/m 20,6 km/h (4 Bft)
08.06.2013 13:02 20,0 C 26,2 C 73 % 1016,6 hPa 0,0 l/m 2 min 0 min 2,9 UV-I 826 W/m 15,4 km/h (3 Bft)
08.06.2013 13:04 20,2 C 26,2 C 72 % 1016,6 hPa 0,0 l/m 2 min 0 min 2,8 UV-I 819 W/m 23,2 km/h (4 Bft)
08.06.2013 13:06 20,4 C 27,3 C 75 % 1016,6 hPa 0,0 l/m 2 min 0 min 2,8 UV-I 821 W/m 7,7 km/h (2 Bft)
08.06.2013 13:08 20,7 C 26,8 C 72 % 1016,6 hPa 0,0 l/m 2 min 0 min 2,8 UV-I 821 W/m 20,6 km/h (4 Bft)
08.06.2013 13:10 20,6 C 26,8 C 71 % 1016,6 hPa 0,0 l/m 2 min 0 min 2,8 UV-I 821 W/m 15,4 km/h (3 Bft)
08.06.2013 13:12 20,7 C 27,3 C 72 % 1016,6 hPa 0,0 l/m 2 min 0 min 2,8 UV-I 814 W/m 10,3 km/h (2 Bft)
08.06.2013 13:14 20,8 C 27,3 C 72 % 1016,5 hPa 0,0 l/m 2 min 0 min 2,8 UV-I 816 W/m 15,4 km/h (3 Bft)
08.06.2013 13:16 20,8 C 26,8 C 71 % 1016,4 hPa 0,0 l/m 2 min 0 min 2,8 UV-I 809 W/m 18,0 km/h (3 Bft)
08.06.2013 13:18 20,7 C 25,7 C 71 % 1016,4 hPa 0,0 l/m 2 min 0 min 2,8 UV-I 810 W/m 20,6 km/h (4 Bft)
08.06.2013 13:20 20,8 C 26,2 C 72 % 1016,4 hPa 0,0 l/m 2 min 0 min 2,8 UV-I 814 W/m 18,0 km/h (3 Bft)
08.06.2013 13:22 20,9 C 26,2 C 71 % 1016,4 hPa 0,0 l/m 2 min 0 min 2,8 UV-I 810 W/m 20,6 km/h (4 Bft)
08.06.2013 13:24 20,8 C 26,2 C 70 % 1016,4 hPa 0,0 l/m 2 min 0 min 2,8 UV-I 796 W/m 15,4 km/h (3 Bft)
08.06.2013 13:26 20,8 C 26,2 C 71 % 1016,4 hPa 0,0 l/m 2 min 0 min 2,8 UV-I 819 W/m 15,4 km/h (3 Bft)
08.06.2013 13:28 20,8 C 26,2 C 71 % 1016,4 hPa 0,0 l/m 2 min 0 min 2,8 UV-I 809 W/m 25,7 km/h (4 Bft)
08.06.2013 13:30 21,0 C 26,2 C 71 % 1016,4 hPa 0,0 l/m 2 min 0 min 2,8 UV-I 809 W/m 12,9 km/h (3 Bft)
08.06.2013 13:32 21,2 C 26,2 C 71 % 1016,4 hPa 0,0 l/m 2 min 0 min 2,8 UV-I 812 W/m 12,9 km/h (3 Bft)
08.06.2013 13:34 21,4 C 26,8 C 71 % 1016,4 hPa 0,0 l/m 2 min 0 min 2,8 UV-I 809 W/m 12,9 km/h (3 Bft)
08.06.2013 13:36 21,8 C 27,3 C 71 % 1016,3 hPa 0,0 l/m 2 min 0 min 2,8 UV-I 816 W/m 10,3 km/h (2 Bft)
08.06.2013 13:38 21,8 C 26,8 C 68 % 1016,3 hPa 0,0 l/m 2 min 0 min 2,8 UV-I 817 W/m 12,9 km/h (3 Bft)
08.06.2013 13:40 21,8 C 26,2 C 69 % 1016,3 hPa 0,0 l/m 2 min 0 min 2,9 UV-I 807 W/m 20,6 km/h (4 Bft)
08.06.2013 13:42 21,7 C 24,6 C 70 % 1016,3 hPa 0,0 l/m 2 min 0 min 3,1 UV-I 814 W/m 23,2 km/h (4 Bft)
08.06.2013 13:44 21,6 C 23,4 C 68 % 1016,2 hPa 0,0 l/m 2 min 0 min 3,4 UV-I 816 W/m 20,6 km/h (4 Bft)
08.06.2013 13:46 21,3 C 22,9 C 68 % 1016,3 hPa 0,0 l/m 2 min 0 min 3,6 UV-I 802 W/m 23,2 km/h (4 Bft)
08.06.2013 13:48 21,1 C 22,3 C 69 % 1016,2 hPa 0,0 l/m 2 min 0 min 3,8 UV-I 805 W/m 33,5 km/h (5 Bft)
08.06.2013 13:50 21,1 C 22,3 C 70 % 1016,3 hPa 0,0 l/m 2 min 0 min 4,1 UV-I 800 W/m 23,2 km/h (4 Bft)
08.06.2013 13:52 21,2 C 22,3 C 71 % 1016,2 hPa 0,0 l/m 2 min 0 min 4,1 UV-I 802 W/m 18,0 km/h (3 Bft)
08.06.2013 13:54 21,3 C 22,3 C 70 % 1016,2 hPa 0,0 l/m 2 min 0 min 4,2 UV-I 795 W/m 20,6 km/h (4 Bft)
08.06.2013 13:56 21,3 C 22,3 C 69 % 1016,2 hPa 0,0 l/m 2 min 0 min 4,2 UV-I 796 W/m 18,0 km/h (3 Bft)
08.06.2013 13:58 21,3 C 22,3 C 70 % 1016,2 hPa 0,0 l/m 2 min 0 min 4,2 UV-I 793 W/m 20,6 km/h (4 Bft)
08.06.2013 14:00 21,3 C 22,3 C 69 % 1016,2 hPa 0,0 l/m 2 min 0 min 4,2 UV-I 800 W/m 23,2 km/h (4 Bft)
08.06.2013 14:02 21,6 C 22,9 C 69 % 1016,2 hPa 0,0 l/m 2 min 0 min 4,3 UV-I 807 W/m 15,4 km/h (3 Bft)
08.06.2013 14:04 21,6 C 22,3 C 68 % 1016,1 hPa 0,0 l/m 2 min 0 min 4,3 UV-I 809 W/m 18,0 km/h (3 Bft)
08.06.2013 14:06 21,7 C 22,9 C 69 % 1016,1 hPa 0,0 l/m 2 min 0 min 4,3 UV-I 809 W/m 15,4 km/h (3 Bft)
08.06.2013 14:08 21,8 C 22,9 C 68 % 1016,1 hPa 0,0 l/m 2 min 0 min 4,3 UV-I 807 W/m 23,2 km/h (4 Bft)
08.06.2013 14:10 21,7 C 22,9 C 69 % 1015,9 hPa 0,0 l/m 2 min 0 min 4,3 UV-I 803 W/m 20,6 km/h (4 Bft)
08.06.2013 14:12 21,7 C 22,9 C 68 % 1016,0 hPa 0,0 l/m 2 min 0 min 4,3 UV-I 802 W/m 20,6 km/h (4 Bft)
08.06.2013 14:14 21,7 C 22,9 C 67 % 1015,9 hPa 0,0 l/m 2 min 0 min 4,2 UV-I 798 W/m 20,6 km/h (4 Bft)
08.06.2013 14:16 21,6 C 22,3 C 67 % 1015,9 hPa 0,0 l/m 2 min 0 min 4,3 UV-I 798 W/m 20,6 km/h (4 Bft)
08.06.2013 14:18 21,6 C 22,9 C 69 % 1015,8 hPa 0,0 l/m 2 min 0 min 4,3 UV-I 805 W/m 12,9 km/h (3 Bft)
08.06.2013 14:20 21,7 C 22,9 C 68 % 1015,8 hPa 0,0 l/m 2 min 0 min 4,3 UV-I 807 W/m 20,6 km/h (4 Bft)
08.06.2013 14:22 22,1 C 23,4 C 68 % 1015,9 hPa 0,0 l/m 2 min 0 min 4,3 UV-I 802 W/m 18,0 km/h (3 Bft)
08.06.2013 14:24 22,2 C 23,4 C 67 % 1015,8 hPa 0,0 l/m 2 min 0 min 4,3 UV-I 805 W/m 28,3 km/h (4 Bft)
08.06.2013 14:26 22,2 C 23,4 C 67 % 1015,9 hPa 0,0 l/m 2 min 0 min 4,3 UV-I 805 W/m 28,3 km/h (4 Bft)
08.06.2013 14:28 22,2 C 22,9 C 66 % 1015,8 hPa 0,0 l/m 2 min 0 min 4,3 UV-I 805 W/m 20,6 km/h (4 Bft)
08.06.2013 14:30 22,1 C 22,9 C 66 % 1015,8 hPa 0,0 l/m 2 min 0 min 4,3 UV-I 803 W/m 15,4 km/h (3 Bft)
08.06.2013 14:32 22,3 C 23,4 C 68 % 1015,8 hPa 0,0 l/m 2 min 0 min 4,2 UV-I 795 W/m 12,9 km/h (3 Bft)
08.06.2013 14:34 22,6 C 24,0 C 66 % 1015,8 hPa 0,0 l/m 2 min 0 min 4,2 UV-I 795 W/m 20,6 km/h (4 Bft)
08.06.2013 14:36 22,7 C 24,0 C 66 % 1015,7 hPa 0,0 l/m 2 min 0 min 4,2 UV-I 789 W/m 12,9 km/h (3 Bft)
08.06.2013 14:38 22,7 C 23,4 C 66 % 1015,7 hPa 0,0 l/m 2 min 0 min 4,2 UV-I 784 W/m 18,0 km/h (3 Bft)
08.06.2013 14:40 22,7 C 24,0 C 67 % 1015,7 hPa 0,0 l/m 2 min 0 min 4,2 UV-I 788 W/m 20,6 km/h (4 Bft)
08.06.2013 14:42 22,9 C 24,0 C 67 % 1015,7 hPa 0,0 l/m 2 min 0 min 4,1 UV-I 786 W/m 12,9 km/h (3 Bft)
08.06.2013 14:44 23,1 C 24,6 C 65 % 1015,6 hPa 0,0 l/m 2 min 0 min 4,1 UV-I 786 W/m 10,3 km/h (2 Bft)
08.06.2013 14:46 23,0 C 24,6 C 64 % 1015,6 hPa 0,0 l/m 2 min 0 min 4,1 UV-I 786 W/m 25,7 km/h (4 Bft)
08.06.2013 14:48 22,8 C 24,0 C 65 % 1015,6 hPa 0,0 l/m 2 min 0 min 4,1 UV-I 784 W/m 23,2 km/h (4 Bft)
08.06.2013 14:50 22,7 C 23,4 C 66 % 1015,6 hPa 0,0 l/m 2 min 0 min 4,1 UV-I 782 W/m 18,0 km/h (3 Bft)
08.06.2013 14:52 22,7 C 23,4 C 66 % 1015,5 hPa 0,0 l/m 2 min 0 min 4,1 UV-I 782 W/m 20,6 km/h (4 Bft)
08.06.2013 14:54 22,7 C 23,4 C 66 % 1015,4 hPa 0,0 l/m 2 min 0 min 4,1 UV-I 779 W/m 18,0 km/h (3 Bft)
08.06.2013 14:56 22,6 C 23,4 C 65 % 1015,4 hPa 0,0 l/m 2 min 0 min 4,0 UV-I 777 W/m 28,3 km/h (4 Bft)
08.06.2013 14:58 22,6 C 23,4 C 65 % 1015,5 hPa 0,0 l/m 2 min 0 min 4,0 UV-I 775 W/m 23,2 km/h (4 Bft)
08.06.2013 15:00 22,7 C 23,4 C 66 % 1015,4 hPa 0,0 l/m 2 min 0 min 4,0 UV-I 772 W/m 15,4 km/h (3 Bft)
08.06.2013 15:02 22,8 C 23,4 C 66 % 1015,4 hPa 0,0 l/m 2 min 0 min 4,0 UV-I 768 W/m 15,4 km/h (3 Bft)
08.06.2013 15:04 23,1 C 24,0 C 65 % 1015,4 hPa 0,0 l/m 2 min 0 min 4,0 UV-I 765 W/m 18,0 km/h (3 Bft)
08.06.2013 15:06 23,2 C 24,0 C 65 % 1015,3 hPa 0,0 l/m 2 min 0 min 4,0 UV-I 777 W/m 15,4 km/h (3 Bft)
08.06.2013 15:08 23,3 C 24,0 C 65 % 1015,3 hPa 0,0 l/m 2 min 0 min 3,9 UV-I 763 W/m 10,3 km/h (2 Bft)
08.06.2013 15:10 23,4 C 24,0 C 63 % 1015,3 hPa 0,0 l/m 2 min 0 min 3,9 UV-I 763 W/m 28,3 km/h (4 Bft)
08.06.2013 15:12 23,3 C 24,0 C 63 % 1015,3 hPa 0,0 l/m 2 min 0 min 3,9 UV-I 759 W/m 18,0 km/h (3 Bft)
08.06.2013 15:14 23,1 C 23,4 C 62 % 1015,2 hPa 0,0 l/m 2 min 0 min 3,9 UV-I 758 W/m 30,9 km/h (5 Bft)
08.06.2013 15:16 23,2 C 23,4 C 64 % 1015,2 hPa 0,0 l/m 2 min 0 min 3,9 UV-I 754 W/m 12,9 km/h (3 Bft)
08.06.2013 15:18 23,4 C 24,0 C 64 % 1015,2 hPa 0,0 l/m 2 min 0 min 3,8 UV-I 754 W/m 12,9 km/h (3 Bft)
08.06.2013 15:20 23,6 C 24,0 C 62 % 1015,1 hPa 0,0 l/m 2 min 0 min 3,7 UV-I 751 W/m 12,9 km/h (3 Bft)
08.06.2013 15:22 23,8 C 24,6 C 62 % 1015,1 hPa 0,0 l/m 2 min 0 min 3,7 UV-I 742 W/m 10,3 km/h (2 Bft)
08.06.2013 15:24 24,3 C 25,1 C 64 % 1015,1 hPa 0,0 l/m 2 min 0 min 3,6 UV-I 731 W/m 7,7 km/h (2 Bft)
08.06.2013 15:26 24,4 C 24,6 C 60 % 1015,1 hPa 0,0 l/m 2 min 0 min 3,6 UV-I 722 W/m 23,2 km/h (4 Bft)
08.06.2013 15:28 24,4 C 24,6 C 61 % 1015,0 hPa 0,0 l/m 2 min 0 min 3,6 UV-I 731 W/m 18,0 km/h (3 Bft)
08.06.2013 15:30 24,3 C 24,6 C 61 % 1015,1 hPa 0,0 l/m 2 min 0 min 3,6 UV-I 733 W/m 23,2 km/h (4 Bft)
08.06.2013 15:32 24,0 C 24,6 C 60 % 1015,0 hPa 0,0 l/m 2 min 0 min 3,6 UV-I 740 W/m 18,0 km/h (3 Bft)
08.06.2013 15:34 23,9 C 24,6 C 61 % 1015,0 hPa 0,0 l/m 2 min 0 min 3,6 UV-I 737 W/m 12,9 km/h (3 Bft)
08.06.2013 15:36 23,9 C 24,6 C 61 % 1015,0 hPa 0,0 l/m 2 min 0 min 3,6 UV-I 731 W/m 15,4 km/h (3 Bft)
08.06.2013 15:38 23,8 C 24,0 C 60 % 1015,0 hPa 0,0 l/m 2 min 0 min 3,5 UV-I 721 W/m 23,2 km/h (4 Bft)
08.06.2013 15:40 23,7 C 24,0 C 61 % 1015,0 hPa 0,0 l/m 2 min 0 min 3,5 UV-I 726 W/m 18,0 km/h (3 Bft)
08.06.2013 15:42 23,6 C 24,0 C 61 % 1015,0 hPa 0,0 l/m 2 min 0 min 3,4 UV-I 717 W/m 18,0 km/h (3 Bft)
08.06.2013 15:44 23,5 C 24,0 C 62 % 1014,9 hPa 0,0 l/m 2 min 0 min 3,4 UV-I 717 W/m 23,2 km/h (4 Bft)
08.06.2013 15:46 23,5 C 24,0 C 62 % 1014,9 hPa 0,0 l/m 2 min 0 min 3,4 UV-I 717 W/m 15,4 km/h (3 Bft)
08.06.2013 15:48 23,7 C 24,0 C 62 % 1014,9 hPa 0,0 l/m 2 min 0 min 3,4 UV-I 715 W/m 25,7 km/h (4 Bft)
08.06.2013 15:50 23,6 C 24,0 C 61 % 1014,9 hPa 0,0 l/m 2 min 0 min 3,4 UV-I 715 W/m 20,6 km/h (4 Bft)
08.06.2013 15:52 23,7 C 24,0 C 61 % 1014,8 hPa 0,0 l/m 2 min 0 min 3,3 UV-I 703 W/m 25,7 km/h (4 Bft)
08.06.2013 15:54 23,6 C 24,0 C 62 % 1014,8 hPa 0,0 l/m 2 min 0 min 3,2 UV-I 694 W/m 18,0 km/h (3 Bft)
08.06.2013 15:56 23,6 C 24,0 C 61 % 1014,8 hPa 0,0 l/m 2 min 0 min 3,2 UV-I 696 W/m 30,9 km/h (5 Bft)
08.06.2013 15:58 23,6 C 24,0 C 61 % 1014,7 hPa 0,0 l/m 2 min 0 min 3,2 UV-I 693 W/m 20,6 km/h (4 Bft)
08.06.2013 16:00 23,6 C 24,0 C 60 % 1014,7 hPa 0,0 l/m 2 min 0 min 3,2 UV-I 701 W/m 23,2 km/h (4 Bft)
08.06.2013 16:02 23,7 C 24,0 C 61 % 1014,7 hPa 0,0 l/m 2 min 0 min 3,2 UV-I 694 W/m 10,3 km/h (2 Bft)
08.06.2013 16:04 23,8 C 24,6 C 61 % 1014,7 hPa 0,0 l/m 2 min 0 min 3,1 UV-I 689 W/m 23,2 km/h (4 Bft)
08.06.2013 16:06 24,1 C 24,6 C 60 % 1014,5 hPa 0,0 l/m 2 min 0 min 3,1 UV-I 679 W/m 20,6 km/h (4 Bft)
08.06.2013 16:08 24,1 C 24,0 C 60 % 1014,6 hPa 0,0 l/m 2 min 0 min 3,0 UV-I 675 W/m 28,3 km/h (4 Bft)
08.06.2013 16:10 24,1 C 24,0 C 59 % 1014,7 hPa 0,0 l/m 2 min 0 min 3,0 UV-I 677 W/m 25,7 km/h (4 Bft)
08.06.2013 16:12 24,0 C 24,6 C 60 % 1014,6 hPa 0,0 l/m 2 min 0 min 3,0 UV-I 679 W/m 25,7 km/h (4 Bft)
08.06.2013 16:14 23,9 C 24,0 C 59 % 1014,7 hPa 0,0 l/m 2 min 0 min 2,9 UV-I 664 W/m 23,2 km/h (4 Bft)
08.06.2013 16:16 23,9 C 24,6 C 60 % 1014,6 hPa 0,0 l/m 2 min 0 min 2,9 UV-I 659 W/m 20,6 km/h (4 Bft)
08.06.2013 16:18 23,9 C 24,6 C 60 % 1014,5 hPa 0,0 l/m 2 min 0 min 2,8 UV-I 652 W/m 30,9 km/h (5 Bft)
08.06.2013 16:20 23,9 C 24,6 C 60 % 1014,5 hPa 0,0 l/m 2 min 0 min 2,8 UV-I 659 W/m 20,6 km/h (4 Bft)
08.06.2013 16:22 24,2 C 25,1 C 61 % 1014,5 hPa 0,0 l/m 2 min 0 min 2,8 UV-I 675 W/m 15,4 km/h (3 Bft)
08.06.2013 16:24 24,3 C 25,7 C 60 % 1014,4 hPa 0,0 l/m 2 min 0 min 2,8 UV-I 661 W/m 18,0 km/h (3 Bft)
08.06.2013 16:26 24,4 C 26,2 C 60 % 1014,4 hPa 0,0 l/m 2 min 0 min 2,8 UV-I 661 W/m 2,6 km/h (1 Bft)
08.06.2013 16:28 24,4 C 26,2 C 59 % 1014,4 hPa 0,0 l/m 2 min 0 min 2,7 UV-I 643 W/m 36,0 km/h (5 Bft)
08.06.2013 16:30 24,4 C 26,2 C 60 % 1014,4 hPa 0,0 l/m 2 min 0 min 2,6 UV-I 642 W/m 20,6 km/h (4 Bft)
08.06.2013 16:32 24,8 C 26,2 C 59 % 1014,5 hPa 0,0 l/m 2 min 0 min 2,6 UV-I 638 W/m 7,7 km/h (2 Bft)
08.06.2013 16:34 24,9 C 26,2 C 57 % 1014,4 hPa 0,0 l/m 2 min 0 min 2,5 UV-I 633 W/m 20,6 km/h (4 Bft)
08.06.2013 16:36 24,7 C 25,1 C 57 % 1014,4 hPa 0,0 l/m 2 min 0 min 2,5 UV-I 621 W/m 23,2 km/h (4 Bft)
08.06.2013 16:38 24,4 C 25,1 C 57 % 1014,4 hPa 0,0 l/m 2 min 0 min 2,4 UV-I 619 W/m 25,7 km/h (4 Bft)
08.06.2013 16:40 24,4 C 25,1 C 59 % 1014,3 hPa 0,0 l/m 2 min 0 min 2,4 UV-I 628 W/m 18,0 km/h (3 Bft)
08.06.2013 16:42 24,5 C 24,6 C 58 % 1014,4 hPa 0,0 l/m 2 min 0 min 2,4 UV-I 622 W/m 20,6 km/h (4 Bft)
08.06.2013 16:44 24,6 C 25,1 C 58 % 1014,4 hPa 0,0 l/m 2 min 0 min 2,4 UV-I 622 W/m 15,4 km/h (3 Bft)
08.06.2013 16:46 24,5 C 24,6 C 58 % 1014,5 hPa 0,0 l/m 2 min 0 min 2,3 UV-I 617 W/m 23,2 km/h (4 Bft)
08.06.2013 16:48 24,3 C 24,6 C 57 % 1014,5 hPa 0,0 l/m 2 min 0 min 2,3 UV-I 619 W/m 20,6 km/h (4 Bft)
08.06.2013 16:50 24,2 C 24,0 C 57 % 1014,5 hPa 0,0 l/m 2 min 0 min 2,2 UV-I 606 W/m 18,0 km/h (3 Bft)
08.06.2013 16:52 24,4 C 24,6 C 58 % 1014,4 hPa 0,0 l/m 2 min 0 min 2,2 UV-I 605 W/m 20,6 km/h (4 Bft)
08.06.2013 16:54 24,5 C 24,6 C 59 % 1014,5 hPa 0,0 l/m 2 min 0 min 2,2 UV-I 598 W/m 20,6 km/h (4 Bft)
08.06.2013 16:56 24,7 C 25,1 C 57 % 1014,4 hPa 0,0 l/m 2 min 0 min 2,1 UV-I 594 W/m 15,4 km/h (3 Bft)
08.06.2013 16:58 24,6 C 24,6 C 58 % 1014,4 hPa 0,0 l/m 2 min 0 min 2,1 UV-I 589 W/m 18,0 km/h (3 Bft)
08.06.2013 17:00 24,6 C 24,6 C 57 % 1014,4 hPa 0,0 l/m 2 min 0 min 2,1 UV-I 584 W/m 23,2 km/h (4 Bft)
08.06.2013 17:02 24,5 C 24,6 C 57 % 1014,5 hPa 0,0 l/m 2 min 0 min 2,0 UV-I 571 W/m 20,6 km/h (4 Bft)
08.06.2013 17:04 24,4 C 24,6 C 58 % 1014,4 hPa 0,0 l/m 2 min 0 min 1,9 UV-I 540 W/m 18,0 km/h (3 Bft)
08.06.2013 17:06 24,5 C 24,6 C 58 % 1014,3 hPa 0,0 l/m 2 min 0 min 1,8 UV-I 533 W/m 7,7 km/h (2 Bft)
08.06.2013 17:08 24,6 C 24,6 C 57 % 1014,4 hPa 0,0 l/m 2 min 0 min 1,8 UV-I 548 W/m 28,3 km/h (4 Bft)
08.06.2013 17:10 24,5 C 24,6 C 58 % 1014,3 hPa 0,0 l/m 2 min 0 min 1,7 UV-I 529 W/m 23,2 km/h (4 Bft)
08.06.2013 17:12 24,5 C 24,6 C 58 % 1014,2 hPa 0,0 l/m 2 min 0 min 1,8 UV-I 585 W/m 30,9 km/h (5 Bft)
08.06.2013 17:14 24,4 C 24,6 C 57 % 1014,1 hPa 0,0 l/m 2 min 0 min 1,7 UV-I 589 W/m 18,0 km/h (3 Bft)
08.06.2013 17:16 24,5 C 24,6 C 57 % 1014,1 hPa 0,0 l/m 2 min 0 min 1,7 UV-I 580 W/m 20,6 km/h (4 Bft)
08.06.2013 17:18 24,6 C 24,6 C 57 % 1014,2 hPa 0,0 l/m 2 min 0 min 1,7 UV-I 585 W/m 18,0 km/h (3 Bft)
08.06.2013 17:20 24,6 C 24,6 C 57 % 1014,1 hPa 0,0 l/m 2 min 0 min 1,3 UV-I 534 W/m 20,6 km/h (4 Bft)
08.06.2013 17:22 24,5 C 24,6 C 57 % 1014,1 hPa 0,0 l/m 0 min 0 min 1,3 UV-I 267 W/m 25,7 km/h (4 Bft)
08.06.2013 17:24 24,4 C 24,0 C 58 % 1014,0 hPa 0,0 l/m 2 min 0 min 1,4 UV-I 364 W/m 23,2 km/h (4 Bft)
08.06.2013 17:26 24,4 C 24,0 C 58 % 1014,0 hPa 0,0 l/m 0 min 0 min 1,2 UV-I 292 W/m 18,0 km/h (3 Bft)
08.06.2013 17:28 24,4 C 24,6 C 58 % 1014,0 hPa 0,0 l/m 0 min 0 min 1,1 UV-I 264 W/m 10,3 km/h (2 Bft)
08.06.2013 17:30 24,3 C 24,0 C 57 % 1014,0 hPa 0,0 l/m 2 min 0 min 1,3 UV-I 394 W/m 23,2 km/h (4 Bft)
08.06.2013 17:32 24,2 C 24,0 C 57 % 1014,0 hPa 0,0 l/m 2 min 0 min 1,3 UV-I 330 W/m 18,0 km/h (3 Bft)
08.06.2013 17:34 24,2 C 24,0 C 58 % 1014,0 hPa 0,0 l/m 2 min 0 min 1,4 UV-I 543 W/m 15,4 km/h (3 Bft)
08.06.2013 17:36 24,2 C 24,0 C 58 % 1014,0 hPa 0,0 l/m 2 min 0 min 1,4 UV-I 536 W/m 12,9 km/h (3 Bft)
08.06.2013 17:38 24,4 C 24,0 C 59 % 1013,9 hPa 0,0 l/m 2 min 0 min 1,4 UV-I 526 W/m 15,4 km/h (3 Bft)
08.06.2013 17:40 24,3 C 24,0 C 57 % 1013,9 hPa 0,0 l/m 2 min 0 min 1,4 UV-I 524 W/m 18,0 km/h (3 Bft)
08.06.2013 17:42 24,3 C 24,0 C 57 % 1013,9 hPa 0,0 l/m 2 min 0 min 1,4 UV-I 519 W/m 28,3 km/h (4 Bft)
08.06.2013 17:44 24,2 C 23,4 C 57 % 1013,9 hPa 0,0 l/m 2 min 0 min 1,3 UV-I 522 W/m 15,4 km/h (3 Bft)
08.06.2013 17:46 24,1 C 23,4 C 58 % 1013,8 hPa 0,0 l/m 2 min 0 min 1,3 UV-I 520 W/m 20,6 km/h (4 Bft)
08.06.2013 17:48 24,2 C 24,0 C 58 % 1013,8 hPa 0,0 l/m 2 min 0 min 1,3 UV-I 519 W/m 20,6 km/h (4 Bft)
08.06.2013 17:50 24,2 C 24,0 C 57 % 1013,9 hPa 0,0 l/m 2 min 0 min 1,3 UV-I 494 W/m 18,0 km/h (3 Bft)
08.06.2013 17:52 24,3 C 24,0 C 57 % 1013,8 hPa 0,0 l/m 2 min 0 min 1,2 UV-I 489 W/m 15,4 km/h (3 Bft)
08.06.2013 17:54 24,2 C 23,4 C 57 % 1013,7 hPa 0,0 l/m 2 min 0 min 1,2 UV-I 473 W/m 23,2 km/h (4 Bft)
08.06.2013 17:56 24,1 C 23,4 C 56 % 1013,7 hPa 0,0 l/m 2 min 0 min 1,2 UV-I 466 W/m 23,2 km/h (4 Bft)
08.06.2013 17:58 24,1 C 23,4 C 58 % 1013,7 hPa 0,0 l/m 2 min 0 min 1,1 UV-I 466 W/m 18,0 km/h (3 Bft)
08.06.2013 18:00 24,2 C 23,4 C 57 % 1013,8 hPa 0,0 l/m 2 min 0 min 1,1 UV-I 452 W/m 15,4 km/h (3 Bft)
08.06.2013 18:02 24,1 C 23,4 C 57 % 1013,7 hPa 0,0 l/m 2 min 0 min 1,1 UV-I 436 W/m 18,0 km/h (3 Bft)
08.06.2013 18:04 24,0 C 22,9 C 58 % 1013,6 hPa 0,0 l/m 2 min 0 min 1,0 UV-I 418 W/m 20,6 km/h (4 Bft)
08.06.2013 18:06 24,0 C 23,4 C 58 % 1013,6 hPa 0,0 l/m 2 min 0 min 0,9 UV-I 408 W/m 20,6 km/h (4 Bft)
08.06.2013 18:08 24,0 C 22,9 C 57 % 1013,6 hPa 0,0 l/m 2 min 0 min 0,9 UV-I 341 W/m 25,7 km/h (4 Bft)
08.06.2013 18:10 23,9 C 22,9 C 58 % 1013,6 hPa 0,0 l/m 2 min 0 min 0,9 UV-I 401 W/m 23,2 km/h (4 Bft)
08.06.2013 18:12 23,8 C 22,9 C 57 % 1013,5 hPa 0,0 l/m 2 min 0 min 0,7 UV-I 397 W/m 20,6 km/h (4 Bft)
08.06.2013 18:14 23,8 C 22,9 C 57 % 1013,5 hPa 0,0 l/m 2 min 0 min 0,8 UV-I 406 W/m 20,6 km/h (4 Bft)
08.06.2013 18:16 23,8 C 22,9 C 58 % 1013,5 hPa 0,0 l/m 0 min 0 min 0,7 UV-I 206 W/m 20,6 km/h (4 Bft)
08.06.2013 18:18 23,7 C 22,9 C 57 % 1013,5 hPa 0,0 l/m 0 min 0 min 0,6 UV-I 134 W/m 25,7 km/h (4 Bft)
08.06.2013 18:20 23,7 C 22,9 C 58 % 1013,4 hPa 0,0 l/m 0 min 0 min 0,7 UV-I 134 W/m 25,7 km/h (4 Bft)
08.06.2013 18:22 23,7 C 22,9 C 58 % 1013,3 hPa 0,0 l/m 2 min 0 min 0,6 UV-I 318 W/m 18,0 km/h (3 Bft)
08.06.2013 18:24 23,8 C 22,9 C 58 % 1013,3 hPa 0,0 l/m 2 min 0 min 0,7 UV-I 364 W/m 18,0 km/h (3 Bft)
08.06.2013 18:26 23,8 C 22,9 C 58 % 1013,3 hPa 0,0 l/m 2 min 0 min 0,7 UV-I 366 W/m 18,0 km/h (3 Bft)
08.06.2013 18:28 23,8 C 22,9 C 58 % 1013,2 hPa 0,0 l/m 2 min 0 min 0,7 UV-I 359 W/m 18,0 km/h (3 Bft)
08.06.2013 18:30 23,8 C 22,9 C 58 % 1013,2 hPa 0,0 l/m 0 min 0 min 0,5 UV-I 239 W/m 23,2 km/h (4 Bft)
08.06.2013 18:32 23,8 C 22,9 C 58 % 1013,2 hPa 0,0 l/m 0 min 0 min 0,6 UV-I 151 W/m 18,0 km/h (3 Bft)
08.06.2013 18:34 23,8 C 22,9 C 59 % 1013,1 hPa 0,0 l/m 2 min 0 min 0,5 UV-I 299 W/m 15,4 km/h (3 Bft)
08.06.2013 18:36 23,8 C 22,9 C 58 % 1013,1 hPa 0,0 l/m 0 min 0 min 0,0 UV-I 202 W/m 18,0 km/h (3 Bft)
08.06.2013 18:38 23,8 C 22,9 C 58 % 1013,1 hPa 0,0 l/m 0 min 0 min 0,0 UV-I 105 W/m 28,3 km/h (4 Bft)
08.06.2013 18:40 23,7 C 22,9 C 57 % 1013,1 hPa 0,0 l/m 0 min 0 min 0,0 UV-I 142 W/m 25,7 km/h (4 Bft)
08.06.2013 18:42 23,7 C 22,3 C 57 % 1013,1 hPa 0,0 l/m 0 min 0 min 0,0 UV-I 113 W/m 28,3 km/h (4 Bft)
08.06.2013 18:44 23,6 C 22,9 C 58 % 1013,1 hPa 0,0 l/m 0 min 0 min 0,0 UV-I 130 W/m 20,6 km/h (4 Bft)
08.06.2013 18:46 23,6 C 22,9 C 59 % 1013,2 hPa 0,0 l/m 0 min 0 min 0,0 UV-I 104 W/m 18,0 km/h (3 Bft)
08.06.2013 18:48 23,6 C 22,9 C 58 % 1013,1 hPa 0,0 l/m 0 min 0 min 0,0 UV-I 100 W/m 28,3 km/h (4 Bft)
08.06.2013 18:50 23,6 C 22,9 C 58 % 1013,1 hPa 0,0 l/m 0 min 0 min 0,0 UV-I 98 W/m 15,4 km/h (3 Bft)
08.06.2013 18:52 23,6 C 22,9 C 58 % 1013,1 hPa 0,0 l/m 0 min 0 min 0,0 UV-I 97 W/m 20,6 km/h (4 Bft)
08.06.2013 18:54 23,6 C 22,3 C 57 % 1013,1 hPa 0,0 l/m 0 min 0 min 0,0 UV-I 97 W/m 20,6 km/h (4 Bft)
08.06.2013 18:56 23,5 C 22,3 C 58 % 1013,1 hPa 0,0 l/m 0 min 0 min 0,0 UV-I 95 W/m 23,2 km/h (4 Bft)
08.06.2013 18:58 23,5 C 22,3 C 58 % 1013,1 hPa 0,0 l/m 0 min 0 min 0,0 UV-I 118 W/m 18,0 km/h (3 Bft)
08.06.2013 19:00 23,4 C 22,3 C 58 % 1013,1 hPa 0,0 l/m 0 min 0 min 0,0 UV-I 93 W/m 18,0 km/h (3 Bft)
08.06.2013 19:02 23,5 C 22,3 C 59 % 1013,0 hPa 0,0 l/m 0 min 0 min 0,0 UV-I 93 W/m 18,0 km/h (3 Bft)
08.06.2013 19:04 23,5 C 22,3 C 58 % 1013,1 hPa 0,0 l/m 0 min 0 min 0,0 UV-I 97 W/m 15,4 km/h (3 Bft)
08.06.2013 19:06 23,4 C 22,3 C 58 % 1013,1 hPa 0,0 l/m 0 min 0 min 0,0 UV-I 90 W/m 20,6 km/h (4 Bft)
08.06.2013 19:08 23,4 C 22,3 C 58 % 1013,0 hPa 0,0 l/m 0 min 0 min 0,0 UV-I 93 W/m 20,6 km/h (4 Bft)
08.06.2013 19:10 23,4 C 22,3 C 58 % 1013,1 hPa 0,0 l/m 0 min 0 min 0,0 UV-I 98 W/m 25,7 km/h (4 Bft)
08.06.2013 19:12 23,3 C 22,3 C 59 % 1013,0 hPa 0,0 l/m 0 min 0 min 0,0 UV-I 90 W/m 18,0 km/h (3 Bft)
08.06.2013 19:14 23,3 C 22,3 C 59 % 1013,0 hPa 0,0 l/m 0 min 0 min 0,0 UV-I 90 W/m 25,7 km/h (4 Bft)
08.06.2013 19:16 23,3 C 22,3 C 59 % 1013,0 hPa 0,0 l/m 0 min 0 min 0,0 UV-I 93 W/m 23,2 km/h (4 Bft)
08.06.2013 19:18 23,3 C 22,3 C 59 % 1013,0 hPa 0,0 l/m 0 min 0 min 0,0 UV-I 100 W/m 18,0 km/h (3 Bft)
08.06.2013 19:20 23,3 C 22,3 C 59 % 1013,1 hPa 0,0 l/m 0 min 0 min 0,0 UV-I 105 W/m 20,6 km/h (4 Bft)
08.06.2013 19:22 23,3 C 22,3 C 59 % 1013,2 hPa 0,0 l/m 0 min 0 min 0,0 UV-I 98 W/m 18,0 km/h (3 Bft)
08.06.2013 19:24 23,2 C 22,3 C 59 % 1013,2 hPa 0,0 l/m 0 min 0 min 0,0 UV-I 91 W/m 23,2 km/h (4 Bft)
08.06.2013 19:26 23,2 C 22,3 C 59 % 1013,2 hPa 0,0 l/m 0 min 0 min 0,0 UV-I 93 W/m 15,4 km/h (3 Bft)
08.06.2013 19:28 23,2 C 22,3 C 59 % 1013,2 hPa 0,0 l/m 0 min 0 min 0,0 UV-I 93 W/m 15,4 km/h (3 Bft)
08.06.2013 19:30 23,1 C 22,3 C 60 % 1013,2 hPa 0,0 l/m 0 min 0 min 0,0 UV-I 90 W/m 20,6 km/h (4 Bft)
08.06.2013 19:32 23,1 C 22,3 C 59 % 1013,2 hPa 0,0 l/m 0 min 0 min 0,0 UV-I 88 W/m 25,7 km/h (4 Bft)
08.06.2013 19:34 23,1 C 21,8 C 59 % 1013,1 hPa 0,0 l/m 0 min 0 min 0,0 UV-I 81 W/m 20,6 km/h (4 Bft)
08.06.2013 19:36 23,0 C 21,8 C 59 % 1013,2 hPa 0,0 l/m 0 min 0 min 0,0 UV-I 79 W/m 20,6 km/h (4 Bft)
08.06.2013 19:38 23,0 C 21,8 C 59 % 1013,2 hPa 0,0 l/m 0 min 0 min 0,0 UV-I 81 W/m 20,6 km/h (4 Bft)
08.06.2013 19:40 22,9 C 21,8 C 59 % 1013,2 hPa 0,0 l/m 0 min 0 min 0,0 UV-I 83 W/m 10,3 km/h (2 Bft)
08.06.2013 19:42 22,9 C 21,8 C 59 % 1013,2 hPa 0,0 l/m 0 min 0 min 0,0 UV-I 86 W/m 15,4 km/h (3 Bft)
08.06.2013 19:44 22,9 C 21,8 C 59 % 1013,2 hPa 0,0 l/m 0 min 0 min 0,0 UV-I 90 W/m 28,3 km/h (4 Bft)
08.06.2013 19:46 22,8 C 21,8 C 59 % 1013,1 hPa 0,0 l/m 0 min 0 min 0,0 UV-I 91 W/m 20,6 km/h (4 Bft)
08.06.2013 19:48 22,8 C 21,8 C 59 % 1013,1 hPa 0,0 l/m 0 min 0 min 0,0 UV-I 90 W/m 20,6 km/h (4 Bft)
08.06.2013 19:50 22,8 C 21,8 C 60 % 1013,2 hPa 0,0 l/m 0 min 0 min 0,0 UV-I 90 W/m 15,4 km/h (3 Bft)
08.06.2013 19:52 22,7 C 21,8 C 60 % 1013,2 hPa 0,0 l/m 0 min 0 min 0,0 UV-I 83 W/m 28,3 km/h (4 Bft)
08.06.2013 19:54 22,7 C 21,8 C 60 % 1013,2 hPa 0,0 l/m 0 min 0 min 0,0 UV-I 76 W/m 20,6 km/h (4 Bft)
08.06.2013 19:56 22,6 C 21,8 C 60 % 1013,2 hPa 0,0 l/m 0 min 0 min 0,0 UV-I 67 W/m 15,4 km/h (3 Bft)
08.06.2013 19:58 22,6 C 21,2 C 60 % 1013,2 hPa 0,0 l/m 0 min 0 min 0,0 UV-I 60 W/m 18,0 km/h (3 Bft)
08.06.2013 20:00 22,5 C 21,2 C 60 % 1013,2 hPa 0,0 l/m 0 min 0 min 0,0 UV-I 56 W/m 20,6 km/h (4 Bft)
08.06.2013 20:02 22,5 C 21,2 C 60 % 1013,2 hPa 0,0 l/m 0 min 0 min 0,0 UV-I 53 W/m 15,4 km/h (3 Bft)
08.06.2013 20:04 22,4 C 21,2 C 61 % 1013,1 hPa 0,0 l/m 0 min 0 min 0,0 UV-I 53 W/m 25,7 km/h (4 Bft)
08.06.2013 20:06 22,4 C 21,2 C 60 % 1013,2 hPa 0,0 l/m 0 min 0 min 0,0 UV-I 56 W/m 18,0 km/h (3 Bft)
08.06.2013 20:08 22,4 C 21,2 C 60 % 1013,2 hPa 0,0 l/m 0 min 0 min 0,0 UV-I 65 W/m 20,6 km/h (4 Bft)
08.06.2013 20:10 22,4 C 21,2 C 60 % 1013,3 hPa 0,0 l/m 0 min 0 min 0,0 UV-I 70 W/m 20,6 km/h (4 Bft)
08.06.2013 20:12 22,4 C 21,2 C 60 % 1013,2 hPa 0,0 l/m 0 min 0 min 0,0 UV-I 70 W/m 20,6 km/h (4 Bft)
08.06.2013 20:14 22,3 C 21,2 C 60 % 1013,3 hPa 0,0 l/m 0 min 0 min 0,0 UV-I 63 W/m 20,6 km/h (4 Bft)
08.06.2013 20:16 22,3 C 21,2 C 60 % 1013,2 hPa 0,0 l/m 0 min 0 min 0,0 UV-I 62 W/m 20,6 km/h (4 Bft)
08.06.2013 20:18 22,3 C 21,2 C 60 % 1013,3 hPa 0,0 l/m 0 min 0 min 0,0 UV-I 63 W/m 20,6 km/h (4 Bft)
08.06.2013 20:20 22,3 C 21,2 C 60 % 1013,2 hPa 0,0 l/m 0 min 0 min 0,0 UV-I 72 W/m 20,6 km/h (4 Bft)
08.06.2013 20:22 22,2 C 21,2 C 60 % 1013,2 hPa 0,0 l/m 0 min 0 min 0,0 UV-I 76 W/m 18,0 km/h (3 Bft)
08.06.2013 20:24 22,2 C 21,2 C 61 % 1013,2 hPa 0,0 l/m 0 min 0 min 0,0 UV-I 76 W/m 20,6 km/h (4 Bft)
08.06.2013 20:26 22,2 C 21,2 C 60 % 1013,2 hPa 0,0 l/m 0 min 0 min 0,0 UV-I 70 W/m 25,7 km/h (4 Bft)
08.06.2013 20:28 22,2 C 21,2 C 61 % 1013,3 hPa 0,0 l/m 0 min 0 min 0,0 UV-I 69 W/m 18,0 km/h (3 Bft)
08.06.2013 20:30 22,1 C 21,2 C 61 % 1013,2 hPa 0,0 l/m 0 min 0 min 0,0 UV-I 58 W/m 15,4 km/h (3 Bft)
08.06.2013 20:32 22,1 C 20,7 C 61 % 1013,2 hPa 0,0 l/m 0 min 0 min 0,0 UV-I 49 W/m 18,0 km/h (3 Bft)
08.06.2013 20:34 22,1 C 20,7 C 61 % 1013,2 hPa 0,0 l/m 0 min 0 min 0,0 UV-I 49 W/m 15,4 km/h (3 Bft)
08.06.2013 20:36 22,1 C 20,7 C 61 % 1013,2 hPa 0,0 l/m 0 min 0 min 0,0 UV-I 51 W/m 18,0 km/h (3 Bft)
08.06.2013 20:38 22,0 C 20,7 C 61 % 1013,2 hPa 0,0 l/m 0 min 0 min 0,0 UV-I 53 W/m 18,0 km/h (3 Bft)
08.06.2013 20:40 21,9 C 20,7 C 61 % 1013,3 hPa 0,0 l/m 0 min 0 min 0,0 UV-I 51 W/m 23,2 km/h (4 Bft)
08.06.2013 20:42 21,9 C 20,7 C 61 % 1013,3 hPa 0,0 l/m 0 min 0 min 0,0 UV-I 49 W/m 18,0 km/h (3 Bft)
08.06.2013 20:44 21,9 C 20,7 C 62 % 1013,3 hPa 0,0 l/m 0 min 0 min 0,0 UV-I 44 W/m 10,3 km/h (2 Bft)
08.06.2013 20:46 21,9 C 20,7 C 62 % 1013,2 hPa 0,0 l/m 0 min 0 min 0,0 UV-I 42 W/m 10,3 km/h (2 Bft)
08.06.2013 20:48 21,8 C 20,1 C 62 % 1013,2 hPa 0,0 l/m 0 min 0 min 0,0 UV-I 39 W/m 18,0 km/h (3 Bft)
08.06.2013 20:50 21,8 C 20,1 C 62 % 1013,2 hPa 0,0 l/m 0 min 0 min 0,0 UV-I 37 W/m 15,4 km/h (3 Bft)
08.06.2013 20:52 21,8 C 20,1 C 62 % 1013,2 hPa 0,0 l/m 0 min 0 min 0,0 UV-I 37 W/m 15,4 km/h (3 Bft)
08.06.2013 20:54 21,7 C 20,1 C 62 % 1013,2 hPa 0,0 l/m 0 min 0 min 0,0 UV-I 35 W/m 23,2 km/h (4 Bft)
08.06.2013 20:56 21,7 C 20,1 C 62 % 1013,1 hPa 0,0 l/m 0 min 0 min 0,0 UV-I 33 W/m 15,4 km/h (3 Bft)
08.06.2013 20:58 21,6 C 20,1 C 63 % 1013,2 hPa 0,0 l/m 0 min 0 min 0,0 UV-I 33 W/m 10,3 km/h (2 Bft)
08.06.2013 21:00 21,6 C 20,1 C 63 % 1013,2 hPa 0,0 l/m 0 min 0 min 0,0 UV-I 32 W/m 10,3 km/h (2 Bft)
08.06.2013 21:02 21,5 C 20,1 C 63 % 1013,2 hPa 0,0 l/m 0 min 0 min 0,0 UV-I 30 W/m 10,3 km/h (2 Bft)
08.06.2013 21:04 21,5 C 20,1 C 63 % 1013,2 hPa 0,0 l/m 0 min 0 min 0,0 UV-I 30 W/m 12,9 km/h (3 Bft)
08.06.2013 21:06 21,4 C 19,6 C 63 % 1013,2 hPa 0,0 l/m 0 min 0 min 0,0 UV-I 28 W/m 10,3 km/h (2 Bft)
08.06.2013 21:08 21,4 C 19,6 C 63 % 1013,3 hPa 0,0 l/m 0 min 0 min 0,0 UV-I 26 W/m 12,9 km/h (3 Bft)
08.06.2013 21:10 21,3 C 19,6 C 63 % 1013,3 hPa 0,0 l/m 0 min 0 min 0,0 UV-I 23 W/m 7,7 km/h (2 Bft)
08.06.2013 21:12 21,3 C 19,6 C 63 % 1013,3 hPa 0,0 l/m 0 min 0 min 0,0 UV-I 21 W/m 10,3 km/h (2 Bft)
08.06.2013 21:14 21,3 C 19,6 C 63 % 1013,3 hPa 0,0 l/m 0 min 0 min 0,0 UV-I 21 W/m 20,6 km/h (4 Bft)
08.06.2013 21:16 21,2 C 19,6 C 63 % 1013,3 hPa 0,0 l/m 0 min 0 min 0,0 UV-I 19 W/m 15,4 km/h (3 Bft)
08.06.2013 21:18 21,2 C 19,0 C 64 % 1013,4 hPa 0,0 l/m 0 min 0 min 0,0 UV-I 18 W/m 15,4 km/h (3 Bft)
08.06.2013 21:20 21,1 C 19,0 C 64 % 1013,3 hPa 0,0 l/m 0 min 0 min 0,0 UV-I 16 W/m 18,0 km/h (3 Bft)
08.06.2013 21:22 21,1 C 19,0 C 64 % 1013,4 hPa 0,0 l/m 0 min 0 min 0,0 UV-I 16 W/m 15,4 km/h (3 Bft)
08.06.2013 21:24 20,9 C 19,0 C 64 % 1013,4 hPa 0,0 l/m 0 min 0 min 0,0 UV-I 16 W/m 10,3 km/h (2 Bft)
08.06.2013 21:26 20,9 C 19,0 C 64 % 1013,4 hPa 0,0 l/m 0 min 0 min 0,0 UV-I 14 W/m 20,6 km/h (4 Bft)
08.06.2013 21:28 20,8 C 19,0 C 65 % 1013,3 hPa 0,0 l/m 0 min 0 min 0,0 UV-I 12 W/m 18,0 km/h (3 Bft)
08.06.2013 21:30 20,8 C 19,0 C 64 % 1013,3 hPa 0,0 l/m 0 min 0 min 0,0 UV-I 12 W/m 23,2 km/h (4 Bft)
08.06.2013 21:32 20,7 C 18,4 C 65 % 1013,3 hPa 0,0 l/m 0 min 0 min 0,0 UV-I 11 W/m 15,4 km/h (3 Bft)
08.06.2013 21:34 20,6 C 18,4 C 65 % 1013,4 hPa 0,0 l/m 0 min 0 min 0,0 UV-I 11 W/m 15,4 km/h (3 Bft)
08.06.2013 21:36 20,6 C 18,4 C 65 % 1013,4 hPa 0,0 l/m 0 min 0 min 0,0 UV-I 9 W/m 12,9 km/h (3 Bft)
08.06.2013 21:38 20,4 C 18,4 C 65 % 1013,4 hPa 0,0 l/m 0 min 0 min 0,0 UV-I 9 W/m 15,4 km/h (3 Bft)
08.06.2013 21:40 20,4 C 18,4 C 66 % 1013,4 hPa 0,0 l/m 0 min 0 min 0,0 UV-I 7 W/m 15,4 km/h (3 Bft)
08.06.2013 21:42 20,3 C 18,4 C 66 % 1013,3 hPa 0,0 l/m 0 min 0 min 0,0 UV-I 7 W/m 10,3 km/h (2 Bft)
08.06.2013 21:44 20,2 C 18,4 C 66 % 1013,3 hPa 0,0 l/m 0 min 0 min 0,0 UV-I 7 W/m 20,6 km/h (4 Bft)
08.06.2013 21:46 20,2 C 18,4 C 66 % 1013,3 hPa 0,0 l/m 0 min 0 min 0,0 UV-I 5 W/m 12,9 km/h (3 Bft)
08.06.2013 21:48 20,1 C 17,9 C 66 % 1013,3 hPa 0,0 l/m 0 min 0 min 0,0 UV-I 5 W/m 18,0 km/h (3 Bft)
08.06.2013 21:50 20,1 C 17,9 C 66 % 1013,4 hPa 0,0 l/m 0 min 0 min 0,0 UV-I 5 W/m 10,3 km/h (2 Bft)
08.06.2013 21:52 19,9 C 17,9 C 66 % 1013,4 hPa 0,0 l/m 0 min 0 min 0,0 UV-I 5 W/m 18,0 km/h (3 Bft)
08.06.2013 21:54 19,9 C 17,9 C 67 % 1013,4 hPa 0,0 l/m 0 min 0 min 0,0 UV-I 0 W/m 10,3 km/h (2 Bft)
08.06.2013 21:56 19,8 C 17,9 C 67 % 1013,4 hPa 0,0 l/m 0 min 0 min 0,0 UV-I 0 W/m 12,9 km/h (3 Bft)
08.06.2013 21:58 19,8 C 17,9 C 67 % 1013,4 hPa 0,0 l/m 0 min 0 min 0,0 UV-I 0 W/m 15,4 km/h (3 Bft)
08.06.2013 22:00 19,7 C 17,9 C 67 % 1013,4 hPa 0,0 l/m 0 min 0 min 0,0 UV-I 0 W/m 18,0 km/h (3 Bft)
08.06.2013 22:02 19,6 C 17,9 C 67 % 1013,4 hPa 0,0 l/m 0 min 0 min 0,0 UV-I 0 W/m 10,3 km/h (2 Bft)
08.06.2013 22:04 19,6 C 17,9 C 67 % 1013,5 hPa 0,0 l/m 0 min 0 min 0,0 UV-I 0 W/m 12,9 km/h (3 Bft)
08.06.2013 22:06 19,4 C 17,9 C 68 % 1013,4 hPa 0,0 l/m 0 min 0 min 0,0 UV-I 0 W/m 12,9 km/h (3 Bft)
08.06.2013 22:08 19,4 C 17,9 C 68 % 1013,5 hPa 0,0 l/m 0 min 0 min 0,0 UV-I 0 W/m 12,9 km/h (3 Bft)
08.06.2013 22:10 19,3 C 17,3 C 68 % 1013,4 hPa 0,0 l/m 0 min 0 min 0,0 UV-I 0 W/m 15,4 km/h (3 Bft)
08.06.2013 22:12 19,3 C 17,3 C 68 % 1013,4 hPa 0,0 l/m 0 min 0 min 0,0 UV-I 0 W/m 18,0 km/h (3 Bft)
08.06.2013 22:14 19,2 C 17,3 C 68 % 1013,5 hPa 0,0 l/m 0 min 0 min 0,0 UV-I 0 W/m 10,3 km/h (2 Bft)
08.06.2013 22:16 19,1 C 17,3 C 68 % 1013,5 hPa 0,0 l/m 0 min 0 min 0,0 UV-I 0 W/m 10,3 km/h (2 Bft)
08.06.2013 22:18 19,1 C 17,3 C 68 % 1013,5 hPa 0,0 l/m 0 min 0 min 0,0 UV-I 0 W/m 15,4 km/h (3 Bft)
08.06.2013 22:20 19,0 C 17,3 C 68 % 1013,5 hPa 0,0 l/m 0 min 0 min 0,0 UV-I 0 W/m 15,4 km/h (3 Bft)
08.06.2013 22:22 18,9 C 17,3 C 69 % 1013,5 hPa 0,0 l/m 0 min 0 min 0,0 UV-I 0 W/m 10,3 km/h (2 Bft)
08.06.2013 22:24 18,9 C 17,3 C 69 % 1013,5 hPa 0,0 l/m 0 min 0 min 0,0 UV-I 0 W/m 12,9 km/h (3 Bft)
08.06.2013 22:26 18,8 C 17,3 C 69 % 1013,5 hPa 0,0 l/m 0 min 0 min 0,0 UV-I 0 W/m 15,4 km/h (3 Bft)
08.06.2013 22:28 18,8 C 17,3 C 69 % 1013,5 hPa 0,0 l/m 0 min 0 min 0,0 UV-I 0 W/m 12,9 km/h (3 Bft)
08.06.2013 22:30 18,7 C 17,3 C 69 % 1013,5 hPa 0,0 l/m 0 min 0 min 0,0 UV-I 0 W/m 20,6 km/h (4 Bft)
08.06.2013 22:32 18,7 C 17,3 C 69 % 1013,6 hPa 0,0 l/m 0 min 0 min 0,0 UV-I 0 W/m 18,0 km/h (3 Bft)
08.06.2013 22:34 18,6 C 17,3 C 69 % 1013,6 hPa 0,0 l/m 0 min 0 min 0,0 UV-I 0 W/m 18,0 km/h (3 Bft)
08.06.2013 22:36 18,5 C 16,8 C 69 % 1013,5 hPa 0,0 l/m 0 min 0 min 0,0 UV-I 0 W/m 18,0 km/h (3 Bft)
08.06.2013 22:38 18,4 C 16,8 C 69 % 1013,5 hPa 0,0 l/m 0 min 0 min 0,0 UV-I 0 W/m 20,6 km/h (4 Bft)
08.06.2013 22:40 18,4 C 16,8 C 69 % 1013,4 hPa 0,0 l/m 0 min 0 min 0,0 UV-I 0 W/m 15,4 km/h (3 Bft)
08.06.2013 22:42 18,3 C 16,8 C 70 % 1013,5 hPa 0,0 l/m 0 min 0 min 0,0 UV-I 0 W/m 15,4 km/h (3 Bft)
08.06.2013 22:44 18,3 C 16,8 C 70 % 1013,5 hPa 0,0 l/m 0 min 0 min 0,0 UV-I 0 W/m 18,0 km/h (3 Bft)
08.06.2013 22:46 18,2 C 16,8 C 70 % 1013,5 hPa 0,0 l/m 0 min 0 min 0,0 UV-I 0 W/m 15,4 km/h (3 Bft)
08.06.2013 22:48 18,2 C 16,8 C 70 % 1013,5 hPa 0,0 l/m 0 min 0 min 0,0 UV-I 0 W/m 12,9 km/h (3 Bft)
08.06.2013 22:50 18,2 C 16,8 C 70 % 1013,5 hPa 0,0 l/m 0 min 0 min 0,0 UV-I 0 W/m 20,6 km/h (4 Bft)
08.06.2013 22:52 18,1 C 16,8 C 70 % 1013,5 hPa 0,0 l/m 0 min 0 min 0,0 UV-I 0 W/m 20,6 km/h (4 Bft)
08.06.2013 22:54 18,1 C 16,8 C 70 % 1013,5 hPa 0,0 l/m 0 min 0 min 0,0 UV-I 0 W/m 18,0 km/h (3 Bft)
08.06.2013 22:56 18,0 C 16,2 C 70 % 1013,5 hPa 0,0 l/m 0 min 0 min 0,0 UV-I 0 W/m 10,3 km/h (2 Bft)
08.06.2013 22:58 17,9 C 16,2 C 70 % 1013,5 hPa 0,0 l/m 0 min 0 min 0,0 UV-I 0 W/m 10,3 km/h (2 Bft)
08.06.2013 23:00 17,9 C 16,2 C 70 % 1013,5 hPa 0,0 l/m 0 min 0 min 0,0 UV-I 0 W/m 28,3 km/h (4 Bft)
08.06.2013 23:02 17,8 C 16,2 C 70 % 1013,6 hPa 0,0 l/m 0 min 0 min 0,0 UV-I 0 W/m 30,9 km/h (5 Bft)
08.06.2013 23:04 17,8 C 16,2 C 70 % 1013,5 hPa 0,0 l/m 0 min 0 min 0,0 UV-I 0 W/m 20,6 km/h (4 Bft)
08.06.2013 23:06 17,7 C 16,2 C 70 % 1013,5 hPa 0,0 l/m 0 min 0 min 0,0 UV-I 0 W/m 18,0 km/h (3 Bft)
08.06.2013 23:08 17,7 C 16,2 C 70 % 1013,5 hPa 0,0 l/m 0 min 0 min 0,0 UV-I 0 W/m 18,0 km/h (3 Bft)
08.06.2013 23:10 17,6 C 16,2 C 70 % 1013,6 hPa 0,0 l/m 0 min 0 min 0,0 UV-I 0 W/m 18,0 km/h (3 Bft)
08.06.2013 23:12 17,6 C 16,2 C 70 % 1013,6 hPa 0,0 l/m 0 min 0 min 0,0 UV-I 0 W/m 15,4 km/h (3 Bft)
08.06.2013 23:14 17,5 C 16,2 C 71 % 1013,6 hPa 0,0 l/m 0 min 0 min 0,0 UV-I 0 W/m 15,4 km/h (3 Bft)
08.06.2013 23:16 17,5 C 16,2 C 71 % 1013,6 hPa 0,0 l/m 0 min 0 min 0,0 UV-I 0 W/m 15,4 km/h (3 Bft)
08.06.2013 23:18 17,4 C 15,7 C 71 % 1013,6 hPa 0,0 l/m 0 min 0 min 0,0 UV-I 0 W/m 18,0 km/h (3 Bft)
08.06.2013 23:20 17,4 C 15,7 C 71 % 1013,5 hPa 0,0 l/m 0 min 0 min 0,0 UV-I 0 W/m 23,2 km/h (4 Bft)
08.06.2013 23:22 17,3 C 15,7 C 71 % 1013,6 hPa 0,0 l/m 0 min 0 min 0,0 UV-I 0 W/m 15,4 km/h (3 Bft)
08.06.2013 23:24 17,3 C 15,7 C 71 % 1013,6 hPa 0,0 l/m 0 min 0 min 0,0 UV-I 0 W/m 23,2 km/h (4 Bft)
08.06.2013 23:26 17,2 C 15,7 C 71 % 1013,6 hPa 0,0 l/m 0 min 0 min 0,0 UV-I 0 W/m 20,6 km/h (4 Bft)
08.06.2013 23:28 17,2 C 15,7 C 71 % 1013,5 hPa 0,0 l/m 0 min 0 min 0,0 UV-I 0 W/m 15,4 km/h (3 Bft)
08.06.2013 23:30 17,2 C 15,7 C 71 % 1013,5 hPa 0,0 l/m 0 min 0 min 0,0 UV-I 0 W/m 18,0 km/h (3 Bft)
08.06.2013 23:32 17,1 C 15,7 C 71 % 1013,6 hPa 0,0 l/m 0 min 0 min 0,0 UV-I 0 W/m 18,0 km/h (3 Bft)
08.06.2013 23:34 17,1 C 15,7 C 71 % 1013,5 hPa 0,0 l/m 0 min 0 min 0,0 UV-I 0 W/m 18,0 km/h (3 Bft)
08.06.2013 23:36 17,0 C 15,7 C 72 % 1013,6 hPa 0,0 l/m 0 min 0 min 0,0 UV-I 0 W/m 15,4 km/h (3 Bft)
08.06.2013 23:38 16,9 C 15,7 C 72 % 1013,6 hPa 0,0 l/m 0 min 0 min 0,0 UV-I 0 W/m 12,9 km/h (3 Bft)
08.06.2013 23:40 16,9 C 15,7 C 72 % 1013,5 hPa 0,0 l/m 0 min 0 min 0,0 UV-I 0 W/m 12,9 km/h (3 Bft)
08.06.2013 23:42 16,9 C 15,7 C 72 % 1013,5 hPa 0,0 l/m 0 min 0 min 0,0 UV-I 0 W/m 15,4 km/h (3 Bft)
08.06.2013 23:44 16,8 C 15,1 C 72 % 1013,5 hPa 0,0 l/m 0 min 0 min 0,0 UV-I 0 W/m 10,3 km/h (2 Bft)
08.06.2013 23:46 16,8 C 15,1 C 72 % 1013,5 hPa 0,0 l/m 0 min 0 min 0,0 UV-I 0 W/m 15,4 km/h (3 Bft)
08.06.2013 23:48 16,7 C 15,1 C 73 % 1013,6 hPa 0,0 l/m 0 min 0 min 0,0 UV-I 0 W/m 15,4 km/h (3 Bft)
08.06.2013 23:50 16,7 C 15,1 C 73 % 1013,6 hPa 0,0 l/m 0 min 0 min 0,0 UV-I 0 W/m 18,0 km/h (3 Bft)
08.06.2013 23:52 16,6 C 15,1 C 73 % 1013,6 hPa 0,0 l/m 0 min 0 min 0,0 UV-I 0 W/m 15,4 km/h (3 Bft)
08.06.2013 23:54 16,6 C 15,1 C 73 % 1013,6 hPa 0,0 l/m 0 min 0 min 0,0 UV-I 0 W/m 12,9 km/h (3 Bft)
08.06.2013 23:56 16,5 C 15,1 C 73 % 1013,6 hPa 0,0 l/m 0 min 0 min 0,0 UV-I 0 W/m 7,7 km/h (2 Bft)
08.06.2013 23:58 16,4 C 15,1 C 73 % 1013,6 hPa 0,0 l/m 0 min 0 min 0,0 UV-I 0 W/m 18,0 km/h (3 Bft)
_ Min-Zeit 06:52 05:08 17:56 19:02 - - - - - 00:16
Minimum _ 12,9 C 12,3 C 56 % 1013,0 hPa - - - - - 0,0 km/h (0 Bft)
_ Max-Zeit 16:34 13:06 06:20 00:36 00:00 07:50 00:00 14:02 13:02 16:28
Maximum _ 25,0 C 27,3 C 91 % 1018,9 hPa 0,0 l/m 2 min 0 min 4,3 UV-I 826 W/m 36,0 km/h
NW (5 Bft)
Durchschnitt _ 18,6 C 18,6 C 73 % 1016,3 hPa #0,0 l/m #9:42 h #0 min. 2,6 UV-I 404 W/m 13,8 km/h (3 Bft)
© 2013 W. Hausmann